| time (UTC) | temp F | wind direction | speed knots | gust knots | rain 1hr in | rain 24hr in | rain mn in | humidity % | barometer mb |
| 20260508062217 | 68 | 35 | 1.7 | 3.5 | 0.00 | 0.04 | 0.00 | 78 | 1014.1 |
| 20260508062124 | 68 | 35 | 1.7 | 4.3 | 0.00 | 0.04 | 0.00 | 78 | 1014.1 |
| 20260508062020 | 68 | 35 | 1.7 | 4.3 | 0.00 | 0.04 | 0.00 | 78 | 1014.2 |
| 20260508061933 | 68 | 35 | 0.9 | 4.3 | 0.00 | 0.04 | 0.00 | 78 | 1014.2 |
| 20260508061841 | 68 | 35 | 0.9 | 4.3 | 0.00 | 0.04 | 0.00 | 78 | 1014.2 |
| 20260508061715 | 68 | 35 | 0.9 | 5.2 | 0.00 | 0.04 | 0.00 | 78 | 1014.3 |
| 20260508061627 | 68 | 35 | 1.7 | 5.2 | 0.00 | 0.04 | 0.00 | 78 | 1014.2 |
| 20260508061533 | 68 | 35 | 1.7 | 5.2 | 0.00 | 0.04 | 0.00 | 78 | 1014.3 |
| 20260508061440 | 68 | 35 | 2.6 | 5.2 | 0.00 | 0.04 | 0.00 | 78 | 1014.2 |
| 20260508061326 | 68 | 35 | 1.7 | 5.2 | 0.00 | 0.04 | 0.00 | 78 | 1014.3 |
| 20260508061238 | 68 | 35 | 1.7 | 5.2 | 0.00 | 0.04 | 0.00 | 78 | 1014.3 |
| 20260508061133 | 68 | 34 | 1.7 | 5.2 | 0.00 | 0.04 | 0.00 | 78 | 1014.4 |
| 20260508061036 | 68 | 34 | 1.7 | 5.2 | 0.00 | 0.04 | 0.00 | 78 | 1014.4 |
| 20260508060927 | 68 | 34 | 2.6 | 5.2 | 0.00 | 0.04 | 0.00 | 78 | 1014.5 |
| 20260508060815 | 68 | 34 | 1.7 | 5.2 | 0.00 | 0.04 | 0.00 | 79 | 1014.5 |
| 20260508060714 | 68 | 360 | 0.9 | 5.2 | 0.00 | 0.04 | 0.00 | 79 | 1014.6 |
| 20260508060624 | 68 | 360 | 0.9 | 5.2 | 0.00 | 0.04 | 0.00 | 79 | 1014.6 |
| 20260508060518 | 68 | 360 | 0.9 | 5.2 | 0.00 | 0.04 | 0.00 | 79 | 1014.6 |
| 20260508060452 | 68 | 360 | 0.9 | 5.2 | 0.00 | 0.04 | 0.00 | 79 | 1014.5 |
| 20260508060321 | 68 | 360 | 1.7 | 5.2 | 0.00 | 0.04 | 0.00 | 78 | 1014.4 |
| 20260508060217 | 68 | 360 | 2.6 | 5.2 | 0.00 | 0.04 | 0.00 | 79 | 1014.4 |
| 20260508060129 | 68 | 360 | 2.6 | 5.2 | 0.00 | 0.04 | 0.00 | 79 | 1014.4 |
| 20260508060022 | 68 | 360 | 0.9 | 2.6 | 0.00 | 0.04 | 0.00 | 79 | 1014.4 |
| 20260508055934 | 68 | 360 | 0.9 | 2.6 | 0.00 | 0.04 | 0.00 | 79 | 1014.4 |
| 20260508055819 | 68 | 360 | 0.0 | 3.5 | 0.00 | 0.04 | 0.00 | 79 | 1014.4 |
| 20260508055720 | 68 | 360 | 0.0 | 4.3 | 0.00 | 0.04 | 0.00 | 79 | 1014.3 |
| 20260508055631 | 68 | 360 | 0.0 | 4.3 | 0.00 | 0.04 | 0.00 | 79 | 1014.4 |
| 20260508055526 | 68 | 360 | 0.0 | 4.3 | 0.00 | 0.04 | 0.00 | 79 | 1014.3 |
| 20260508055418 | 68 | 360 | 0.0 | 4.3 | 0.00 | 0.04 | 0.00 | 79 | 1014.3 |
| 20260508055325 | 68 | 360 | 0.9 | 4.3 | 0.00 | 0.04 | 0.00 | 79 | 1014.3 |
| 20260508055218 | 68 | 360 | 1.7 | 4.3 | 0.00 | 0.04 | 0.00 | 79 | 1014.4 |
| 20260508055139 | 68 | 360 | 1.7 | 4.3 | 0.00 | 0.04 | 0.00 | 79 | 1014.3 |
| 20260508055015 | 68 | 360 | 1.7 | 4.3 | 0.00 | 0.04 | 0.00 | 79 | 1014.2 |
| 20260508054921 | 68 | 360 | 2.6 | 4.3 | 0.00 | 0.04 | 0.00 | 79 | 1014.2 |
| 20260508054835 | 68 | 360 | 2.6 | 4.3 | 0.00 | 0.04 | 0.00 | 79 | 1014.2 |
| 20260508054742 | 68 | 360 | 1.7 | 4.3 | 0.00 | 0.04 | 0.00 | 79 | 1014.1 |
| 20260508054650 | 68 | 26 | 0.9 | 3.5 | 0.00 | 0.04 | 0.00 | 79 | 1014.2 |
| 20260508054545 | 68 | 26 | 0.9 | 3.5 | 0.00 | 0.04 | 0.00 | 79 | 1014.3 |
| 20260508054436 | 68 | 26 | 0.9 | 3.5 | 0.00 | 0.04 | 0.00 | 79 | 1014.3 |
| 20260508054324 | 68 | 26 | 0.9 | 3.5 | 0.00 | 0.04 | 0.00 | 79 | 1014.4 |
| 20260508054220 | 68 | 26 | 1.7 | 3.5 | 0.00 | 0.04 | 0.00 | 79 | 1014.4 |
| 20260508054152 | 68 | 26 | 0.9 | 3.5 | 0.00 | 0.04 | 0.00 | 79 | 1014.5 |
| 20260508054028 | 68 | 26 | 0.9 | 3.5 | 0.00 | 0.04 | 0.00 | 79 | 1014.5 |
| 20260508053920 | 68 | 26 | 1.7 | 4.3 | 0.00 | 0.04 | 0.00 | 79 | 1014.5 |
| 20260508053826 | 68 | 26 | 1.7 | 4.3 | 0.00 | 0.04 | 0.00 | 79 | 1014.5 |
| 20260508053741 | 68 | 26 | 1.7 | 4.3 | 0.00 | 0.04 | 0.00 | 79 | 1014.5 |
| 20260508053642 | 68 | 26 | 0.9 | 4.3 | 0.00 | 0.04 | 0.00 | 79 | 1014.5 |
| 20260508053518 | 68 | 26 | 0.0 | 4.3 | 0.00 | 0.04 | 0.00 | 79 | 1014.4 |
| 20260508053428 | 68 | 26 | 0.9 | 4.3 | 0.00 | 0.04 | 0.00 | 79 | 1014.3 |
| 20260508053336 | 68 | 26 | 1.7 | 4.3 | 0.00 | 0.04 | 0.00 | 79 | 1014.3 |
| 20260508053219 | 68 | 24 | 1.7 | 4.3 | 0.00 | 0.04 | 0.00 | 79 | 1014.2 |
| 20260508053143 | 68 | 25 | 2.6 | 4.3 | 0.00 | 0.04 | 0.00 | 79 | 1014.1 |
| 20260508053018 | 68 | 42 | 0.9 | 4.3 | 0.00 | 0.04 | 0.00 | 79 | 1014.1 |
| 20260508052930 | 68 | 42 | 0.0 | 4.3 | 0.00 | 0.04 | 0.00 | 79 | 1014.0 |
| 20260508052821 | 68 | 42 | 0.9 | 4.3 | 0.00 | 0.04 | 0.00 | 79 | 1014.0 |
| 20260508052718 | 68 | 42 | 0.9 | 4.3 | 0.00 | 0.04 | 0.00 | 79 | 1014.0 |
| 20260508052652 | 68 | 42 | 0.9 | 4.3 | 0.00 | 0.04 | 0.00 | 79 | 1014.1 |
| 20260508052526 | 68 | 46 | 1.7 | 4.3 | 0.00 | 0.04 | 0.00 | 79 | 1014.1 |
| 20260508052412 | 68 | 46 | 1.7 | 4.3 | 0.00 | 0.04 | 0.00 | 79 | 1014.1 |
| 20260508052326 | 68 | 46 | 1.7 | 4.3 | 0.00 | 0.04 | 0.00 | 79 | 1014.1 |
| 20260508052218 | 68 | 62 | 1.7 | 4.3 | 0.00 | 0.04 | 0.00 | 79 | 1014.1 |
| 20260508052133 | 68 | 17 | 0.9 | 4.3 | 0.00 | 0.04 | 0.00 | 79 | 1014.0 |
| 20260508052035 | 68 | 17 | 0.0 | 3.5 | 0.00 | 0.04 | 0.00 | 79 | 1014.0 |
| 20260508051922 | 68 | 17 | 0.9 | 3.5 | 0.00 | 0.04 | 0.00 | 79 | 1014.0 |
| 20260508051829 | 68 | 17 | 0.9 | 3.5 | 0.00 | 0.04 | 0.00 | 79 | 1014.1 |
| 20260508051720 | 68 | 17 | 0.9 | 3.5 | 0.00 | 0.04 | 0.00 | 79 | 1014.0 |
| 20260508051702 | 68 | 17 | 0.9 | 4.3 | 0.00 | 0.04 | 0.00 | 79 | 1014.0 |
| 20260508051417 | 68 | 17 | 1.7 | 4.3 | 0.00 | 0.04 | 0.00 | 79 | 1014.1 |
| 20260508051323 | 68 | 17 | 1.7 | 4.3 | 0.00 | 0.04 | 0.00 | 79 | 1014.1 |
| 20260508051219 | 68 | 17 | 1.7 | 4.3 | 0.00 | 0.04 | 0.00 | 79 | 1014.2 |
| 20260508051134 | 68 | 17 | 1.7 | 4.3 | 0.00 | 0.04 | 0.00 | 79 | 1014.3 |
| 20260508051027 | 68 | 17 | 1.7 | 4.3 | 0.00 | 0.04 | 0.00 | 79 | 1014.4 |
| 20260508050942 | 68 | 17 | 1.7 | 4.3 | 0.00 | 0.04 | 0.00 | 79 | 1014.4 |
| 20260508050829 | 68 | 17 | 1.7 | 4.3 | 0.00 | 0.04 | 0.04 | 79 | 1014.5 |
| 20260508050736 | 68 | 17 | 1.7 | 4.3 | 0.00 | 0.04 | 0.04 | 79 | 1014.4 |
| 20260508050638 | 68 | 15 | 1.7 | 4.3 | 0.00 | 0.04 | 0.04 | 79 | 1014.4 |
| 20260508050517 | 68 | 18 | 1.7 | 4.3 | 0.00 | 0.04 | 0.04 | 79 | 1014.4 |
| 20260508050432 | 68 | 18 | 1.7 | 4.3 | 0.00 | 0.04 | 0.04 | 79 | 1014.4 |
| 20260508050337 | 68 | 18 | 1.7 | 4.3 | 0.00 | 0.04 | 0.04 | 79 | 1014.3 |
| 20260508050224 | 68 | 16 | 1.7 | 3.5 | 0.00 | 0.04 | 0.04 | 80 | 1014.3 |
| 20260508050208 | 68 | 16 | 1.7 | 3.5 | 0.00 | 0.04 | 0.04 | 79 | 1014.3 |
| 20260508050021 | 68 | 40 | 0.9 | 2.6 | 0.00 | 0.04 | 0.04 | 80 | 1014.2 |
| 20260508045934 | 68 | 40 | 0.9 | 2.6 | 0.00 | 0.04 | 0.04 | 80 | 1014.2 |
| 20260508045822 | 68 | 40 | 0.9 | 2.6 | 0.00 | 0.04 | 0.04 | 80 | 1014.2 |
| 20260508045719 | 68 | 40 | 0.0 | 2.6 | 0.00 | 0.04 | 0.04 | 80 | 1014.2 |
| 20260508045626 | 68 | 40 | 0.0 | 2.6 | 0.00 | 0.04 | 0.04 | 80 | 1014.2 |
| 20260508045547 | 68 | 40 | 0.0 | 2.6 | 0.00 | 0.04 | 0.04 | 80 | 1014.2 |
| 20260508045412 | 68 | 40 | 0.0 | 2.6 | 0.00 | 0.04 | 0.04 | 80 | 1014.1 |
| 20260508045329 | 68 | 40 | 0.9 | 2.6 | 0.00 | 0.04 | 0.04 | 80 | 1014.1 |
| 20260508045215 | 68 | 40 | 0.9 | 2.6 | 0.00 | 0.04 | 0.04 | 80 | 1014.0 |
| 20260508045132 | 68 | 40 | 0.9 | 3.5 | 0.00 | 0.04 | 0.04 | 80 | 1014.0 |
| 20260508045034 | 68 | 40 | 0.9 | 3.5 | 0.00 | 0.04 | 0.04 | 79 | 1014.0 |
| 20260508044922 | 68 | 39 | 0.9 | 3.5 | 0.00 | 0.04 | 0.04 | 80 | 1014.0 |
| 20260508044811 | 68 | 39 | 0.0 | 3.5 | 0.00 | 0.04 | 0.04 | 80 | 1014.0 |
| 20260508044719 | 68 | 40 | 0.0 | 4.3 | 0.00 | 0.04 | 0.04 | 80 | 1014.0 |
| 20260508044623 | 68 | 40 | 0.9 | 5.2 | 0.00 | 0.04 | 0.04 | 80 | 1013.9 |
| 20260508044517 | 68 | 40 | 0.9 | 5.2 | 0.00 | 0.04 | 0.04 | 80 | 1013.9 |
| 20260508044423 | 68 | 38 | 0.9 | 5.2 | 0.00 | 0.04 | 0.04 | 80 | 1014.0 |
| 20260508044337 | 68 | 38 | 0.9 | 5.2 | 0.00 | 0.04 | 0.04 | 80 | 1014.0 |
| 20260508044228 | 68 | 38 | 0.9 | 5.2 | 0.00 | 0.04 | 0.04 | 80 | 1014.1 |
| 20260508044146 | 68 | 38 | 0.9 | 5.2 | 0.00 | 0.04 | 0.04 | 80 | 1014.2 |
| 20260508044047 | 68 | 38 | 0.9 | 5.2 | 0.00 | 0.04 | 0.04 | 80 | 1014.1 |
| 20260508043959 | 68 | 38 | 1.7 | 5.2 | 0.00 | 0.04 | 0.04 | 80 | 1014.1 |
| 20260508043826 | 68 | 38 | 2.6 | 5.2 | 0.00 | 0.04 | 0.04 | 80 | 1014.1 |
| 20260508043723 | 68 | 12 | 2.6 | 5.2 | 0.00 | 0.04 | 0.04 | 80 | 1014.1 |
| 20260508043657 | 68 | 24 | 1.7 | 4.3 | 0.00 | 0.04 | 0.04 | 80 | 1014.1 |
| 20260508043514 | 68 | 24 | 0.9 | 4.3 | 0.00 | 0.04 | 0.04 | 80 | 1014.2 |
| 20260508043422 | 68 | 23 | 0.9 | 4.3 | 0.00 | 0.04 | 0.04 | 80 | 1014.2 |
| 20260508043334 | 68 | 23 | 1.7 | 4.3 | 0.00 | 0.04 | 0.04 | 80 | 1014.3 |
| 20260508043222 | 68 | 23 | 1.7 | 4.3 | 0.00 | 0.04 | 0.04 | 80 | 1014.4 |
| 20260508043139 | 68 | 23 | 1.7 | 4.3 | 0.00 | 0.04 | 0.04 | 80 | 1014.3 |
| 20260508043018 | 68 | 23 | 1.7 | 4.3 | 0.00 | 0.04 | 0.04 | 80 | 1014.3 |
| 20260508042931 | 68 | 22 | 0.9 | 4.3 | 0.00 | 0.04 | 0.04 | 80 | 1014.3 |
| 20260508042819 | 68 | 22 | 0.0 | 4.3 | 0.00 | 0.04 | 0.04 | 80 | 1014.4 |
| 20260508042713 | 68 | 22 | 0.0 | 4.3 | 0.00 | 0.04 | 0.04 | 80 | 1014.3 |
| 20260508042646 | 68 | 22 | 0.0 | 4.3 | 0.00 | 0.04 | 0.04 | 80 | 1014.3 |
| 20260508042527 | 68 | 22 | 0.9 | 4.3 | 0.00 | 0.04 | 0.04 | 80 | 1014.3 |
| 20260508042413 | 68 | 22 | 0.9 | 4.3 | 0.00 | 0.04 | 0.04 | 80 | 1014.3 |
| 20260508042321 | 68 | 22 | 1.7 | 4.3 | 0.00 | 0.04 | 0.04 | 80 | 1014.3 |
| 20260508042219 | 68 | 22 | 1.7 | 3.5 | 0.00 | 0.04 | 0.04 | 80 | 1014.3 |
| 20260508042130 | 68 | 22 | 1.7 | 4.3 | 0.00 | 0.04 | 0.04 | 80 | 1014.4 |
| 20260508042026 | 68 | 22 | 1.7 | 4.3 | 0.00 | 0.04 | 0.04 | 80 | 1014.4 |
| 20260508041943 | 68 | 21 | 1.7 | 4.3 | 0.00 | 0.04 | 0.04 | 80 | 1014.5 |
| 20260508041830 | 68 | 21 | 0.9 | 4.3 | 0.00 | 0.04 | 0.04 | 80 | 1014.5 |
| 20260508041718 | 68 | 21 | 0.9 | 4.3 | 0.00 | 0.04 | 0.04 | 80 | 1014.5 |
| 20260508041640 | 68 | 21 | 0.9 | 4.3 | 0.00 | 0.04 | 0.04 | 80 | 1014.6 |
| 20260508041513 | 68 | 21 | 0.9 | 5.2 | 0.00 | 0.04 | 0.04 | 80 | 1014.6 |
| 20260508041426 | 68 | 19 | 0.0 | 5.2 | 0.00 | 0.04 | 0.04 | 80 | 1014.6 |
| 20260508041317 | 68 | 19 | 0.9 | 5.2 | 0.00 | 0.04 | 0.04 | 80 | 1014.7 |
| 20260508041241 | 68 | 19 | 0.9 | 5.2 | 0.00 | 0.04 | 0.04 | 80 | 1014.7 |
| 20260508041126 | 68 | 26 | 0.9 | 5.2 | 0.00 | 0.04 | 0.04 | 80 | 1014.7 |
| 20260508041028 | 68 | 26 | 1.7 | 5.2 | 0.00 | 0.04 | 0.04 | 80 | 1014.7 |
| 20260508040913 | 68 | 26 | 0.9 | 5.2 | 0.00 | 0.04 | 0.04 | 80 | 1014.7 |
| 20260508040820 | 68 | 25 | 1.7 | 5.2 | 0.00 | 0.04 | 0.04 | 79 | 1014.7 |
| 20260508040721 | 68 | 25 | 1.7 | 5.2 | 0.00 | 0.04 | 0.04 | 79 | 1014.6 |
| 20260508040654 | 68 | 20 | 0.9 | 3.5 | 0.00 | 0.04 | 0.04 | 79 | 1014.6 |
| 20260508040536 | 68 | 20 | 0.9 | 3.5 | 0.00 | 0.04 | 0.04 | 79 | 1014.7 |
| 20260508040423 | 68 | 20 | 1.7 | 3.5 | 0.00 | 0.04 | 0.04 | 79 | 1014.7 |
| 20260508040331 | 68 | 20 | 1.7 | 3.5 | 0.00 | 0.04 | 0.04 | 79 | 1014.7 |
| 20260508040212 | 68 | 20 | 1.7 | 3.5 | 0.00 | 0.04 | 0.04 | 79 | 1014.7 |
| 20260508040146 | 68 | 20 | 1.7 | 3.5 | 0.00 | 0.04 | 0.04 | 79 | 1014.7 |
| 20260508040022 | 68 | 20 | 0.9 | 3.5 | 0.00 | 0.04 | 0.04 | 79 | 1014.8 |
| 20260508035928 | 68 | 19 | 0.9 | 3.5 | 0.00 | 0.04 | 0.04 | 79 | 1014.8 |
| 20260508035815 | 68 | 19 | 0.9 | 3.5 | 0.00 | 0.04 | 0.04 | 79 | 1014.9 |
| 20260508035717 | 68 | 19 | 1.7 | 3.5 | 0.00 | 0.04 | 0.04 | 79 | 1014.9 |
| 20260508035649 | 68 | 19 | 1.7 | 3.5 | 0.00 | 0.04 | 0.04 | 79 | 1015.0 |
| 20260508035551 | 68 | 19 | 2.6 | 3.5 | 0.00 | 0.04 | 0.04 | 79 | 1014.9 |
| 20260508035418 | 68 | 19 | 1.7 | 3.5 | 0.00 | 0.04 | 0.04 | 79 | 1014.8 |
| 20260508035325 | 68 | 18 | 0.9 | 3.5 | 0.00 | 0.04 | 0.04 | 79 | 1014.8 |
| 20260508035221 | 68 | 18 | 0.9 | 3.5 | 0.00 | 0.04 | 0.04 | 79 | 1014.8 |
| 20260508035133 | 68 | 18 | 0.9 | 5.2 | 0.00 | 0.04 | 0.04 | 79 | 1014.8 |
| 20260508035039 | 68 | 18 | 0.9 | 6.1 | 0.00 | 0.04 | 0.04 | 79 | 1014.8 |
| 20260508034926 | 68 | 18 | 0.9 | 7.8 | 0.00 | 0.04 | 0.04 | 79 | 1014.8 |
| 20260508034812 | 68 | 18 | 0.0 | 7.8 | 0.00 | 0.04 | 0.04 | 79 | 1014.8 |
| 20260508034718 | 68 | 18 | 0.9 | 7.8 | 0.00 | 0.04 | 0.04 | 79 | 1014.8 |
| 20260508034642 | 68 | 18 | 0.9 | 7.8 | 0.00 | 0.04 | 0.04 | 79 | 1014.7 |
| 20260508034524 | 68 | 18 | 1.7 | 7.8 | 0.00 | 0.04 | 0.04 | 79 | 1014.7 |
| 20260508034451 | 68 | 18 | 2.6 | 7.8 | 0.00 | 0.04 | 0.04 | 79 | 1014.7 |
| 20260508034318 | 68 | 18 | 2.6 | 7.8 | 0.00 | 0.04 | 0.04 | 79 | 1014.6 |
| 20260508034220 | 68 | 42 | 2.6 | 7.8 | 0.00 | 0.04 | 0.04 | 79 | 1014.7 |
| 20260508034146 | 68 | 46 | 3.5 | 7.8 | 0.00 | 0.04 | 0.04 | 79 | 1014.7 |
| 20260508034026 | 68 | 5 | 3.5 | 7.8 | 0.00 | 0.04 | 0.04 | 79 | 1014.6 |
| 20260508033919 | 68 | 24 | 1.7 | 7.0 | 0.00 | 0.04 | 0.04 | 79 | 1014.6 |
| 20260508033826 | 68 | 45 | 0.9 | 7.0 | 0.00 | 0.04 | 0.04 | 79 | 1014.6 |
| 20260508033712 | 68 | 346 | 0.9 | 7.0 | 0.00 | 0.04 | 0.04 | 79 | 1014.7 |
| 20260508033636 | 68 | 346 | 1.7 | 7.0 | 0.00 | 0.04 | 0.04 | 79 | 1014.7 |
| 20260508033511 | 68 | 346 | 3.5 | 7.0 | 0.00 | 0.04 | 0.04 | 79 | 1014.7 |
| 20260508033423 | 68 | 52 | 3.5 | 7.0 | 0.00 | 0.04 | 0.04 | 79 | 1014.7 |
| 20260508033337 | 68 | 66 | 2.6 | 7.0 | 0.00 | 0.04 | 0.04 | 79 | 1014.8 |
| 20260508033235 | 68 | 5 | 1.7 | 7.0 | 0.00 | 0.04 | 0.04 | 79 | 1014.7 |
| 20260508033127 | 68 | 5 | 1.7 | 7.0 | 0.00 | 0.04 | 0.04 | 79 | 1014.7 |
| 20260508033022 | 68 | 13 | 2.6 | 7.0 | 0.00 | 0.04 | 0.04 | 79 | 1014.6 |
| 20260508032928 | 68 | 12 | 2.6 | 7.0 | 0.00 | 0.04 | 0.04 | 79 | 1014.6 |
| 20260508032820 | 68 | 360 | 2.6 | 4.3 | 0.00 | 0.04 | 0.04 | 79 | 1014.6 |
| 20260508032722 | 68 | 360 | 2.6 | 4.3 | 0.00 | 0.04 | 0.04 | 79 | 1014.6 |
| 20260508032628 | 68 | 57 | 2.6 | 4.3 | 0.00 | 0.04 | 0.04 | 79 | 1014.6 |
| 20260508032530 | 68 | 61 | 1.7 | 4.3 | 0.00 | 0.04 | 0.04 | 79 | 1014.5 |
| 20260508032418 | 68 | 13 | 0.9 | 4.3 | 0.00 | 0.04 | 0.04 | 79 | 1014.6 |
| 20260508032344 | 68 | 13 | 0.9 | 4.3 | 0.00 | 0.04 | 0.04 | 79 | 1014.5 |
| 20260508032214 | 68 | 13 | 1.7 | 4.3 | 0.00 | 0.04 | 0.04 | 79 | 1014.5 |
| 20260508032139 | 68 | 13 | 1.7 | 4.3 | 0.00 | 0.04 | 0.04 | 79 | 1014.5 |
| 20260508032013 | 68 | 13 | 0.9 | 4.3 | 0.00 | 0.04 | 0.04 | 79 | 1014.6 |
| 20260508031919 | 68 | 13 | 0.9 | 4.3 | 0.00 | 0.04 | 0.04 | 79 | 1014.6 |
| 20260508031833 | 68 | 13 | 0.9 | 4.3 | 0.00 | 0.04 | 0.04 | 79 | 1014.6 |
| 20260508031713 | 68 | 13 | 1.7 | 4.3 | 0.00 | 0.04 | 0.04 | 79 | 1014.7 |
| 20260508031641 | 68 | 11 | 1.7 | 4.3 | 0.00 | 0.04 | 0.04 | 79 | 1014.7 |
| 20260508031515 | 68 | 11 | 1.7 | 4.3 | 0.00 | 0.04 | 0.04 | 79 | 1014.8 |
| 20260508031429 | 68 | 11 | 0.9 | 4.3 | 0.00 | 0.04 | 0.04 | 79 | 1014.8 |
| 20260508031315 | 68 | 11 | 1.7 | 4.3 | 0.00 | 0.04 | 0.04 | 79 | 1014.7 |
| 20260508031218 | 68 | 10 | 1.7 | 4.3 | 0.00 | 0.04 | 0.04 | 79 | 1014.7 |
| 20260508031130 | 68 | 10 | 1.7 | 4.3 | 0.00 | 0.04 | 0.04 | 78 | 1014.7 |
| 20260508031046 | 68 | 30 | 1.7 | 4.3 | 0.00 | 0.04 | 0.04 | 78 | 1014.7 |
| 20260508030938 | 68 | 30 | 2.6 | 4.3 | 0.00 | 0.04 | 0.04 | 78 | 1014.7 |
| 20260508030825 | 69 | 14 | 2.6 | 4.3 | 0.00 | 0.04 | 0.04 | 78 | 1014.7 |
| 20260508030711 | 69 | 30 | 1.7 | 4.3 | 0.00 | 0.04 | 0.04 | 78 | 1014.6 |
| 20260508030640 | 69 | 28 | 1.7 | 4.3 | 0.00 | 0.04 | 0.04 | 78 | 1014.6 |
| 20260508030514 | 69 | 19 | 0.9 | 4.3 | 0.00 | 0.04 | 0.04 | 78 | 1014.6 |
| 20260508030422 | 69 | 19 | 0.9 | 5.2 | 0.00 | 0.04 | 0.04 | 78 | 1014.6 |
| 20260508030329 | 69 | 19 | 1.7 | 5.2 | 0.00 | 0.04 | 0.04 | 78 | 1014.6 |
| 20260508030215 | 69 | 19 | 2.6 | 5.2 | 0.00 | 0.04 | 0.04 | 78 | 1014.7 |
| 20260508030143 | 69 | 19 | 2.6 | 5.2 | 0.00 | 0.04 | 0.04 | 78 | 1014.7 |
| 20260508030019 | 69 | 46 | 1.7 | 5.2 | 0.00 | 0.04 | 0.04 | 78 | 1014.7 |
| 20260508025951 | 69 | 46 | 0.9 | 5.2 | 0.00 | 0.04 | 0.04 | 78 | 1014.7 |
| 20260508025818 | 69 | 46 | 1.7 | 5.2 | 0.00 | 0.04 | 0.04 | 78 | 1014.7 |
| 20260508025714 | 69 | 46 | 2.6 | 5.2 | 0.00 | 0.04 | 0.04 | 78 | 1014.7 |
| 20260508025646 | 69 | 46 | 2.6 | 5.2 | 0.00 | 0.04 | 0.04 | 78 | 1014.7 |
| 20260508025528 | 69 | 44 | 2.6 | 5.2 | 0.00 | 0.04 | 0.04 | 78 | 1014.7 |
| 20260508025413 | 69 | 31 | 1.7 | 5.2 | 0.00 | 0.04 | 0.04 | 78 | 1014.7 |
| 20260508025320 | 69 | 31 | 1.7 | 5.2 | 0.00 | 0.04 | 0.04 | 78 | 1014.7 |
| 20260508025218 | 69 | 31 | 2.6 | 5.2 | 0.00 | 0.04 | 0.04 | 78 | 1014.7 |
| 20260508025130 | 69 | 30 | 2.6 | 5.2 | 0.00 | 0.04 | 0.04 | 78 | 1014.7 |
| 20260508025037 | 69 | 49 | 2.6 | 5.2 | 0.00 | 0.04 | 0.04 | 78 | 1014.8 |
| 20260508024924 | 69 | 22 | 2.6 | 5.2 | 0.00 | 0.04 | 0.04 | 78 | 1014.8 |
| 20260508024831 | 69 | 21 | 2.6 | 6.1 | 0.00 | 0.04 | 0.04 | 78 | 1014.8 |
| 20260508024718 | 69 | 34 | 2.6 | 5.2 | 0.00 | 0.04 | 0.04 | 78 | 1014.9 |
| 20260508024641 | 69 | 34 | 1.7 | 7.0 | 0.00 | 0.04 | 0.04 | 78 | 1014.9 |
| 20260508024522 | 69 | 5 | 1.7 | 7.0 | 0.00 | 0.04 | 0.04 | 78 | 1014.9 |
| 20260508024429 | 69 | 28 | 2.6 | 7.0 | 0.00 | 0.04 | 0.04 | 78 | 1014.8 |
| 20260508024334 | 69 | 28 | 3.5 | 7.0 | 0.00 | 0.04 | 0.04 | 78 | 1014.8 |
| 20260508024218 | 69 | 16 | 2.6 | 7.0 | 0.00 | 0.04 | 0.04 | 78 | 1014.8 |
| 20260508024124 | 69 | 5 | 1.7 | 7.0 | 0.00 | 0.04 | 0.04 | 78 | 1014.8 |
| 20260508024027 | 69 | 42 | 0.9 | 7.0 | 0.00 | 0.04 | 0.04 | 78 | 1014.8 |
| 20260508023918 | 69 | 42 | 2.6 | 7.0 | 0.00 | 0.04 | 0.04 | 78 | 1014.8 |
| 20260508023825 | 69 | 42 | 1.7 | 7.0 | 0.00 | 0.04 | 0.04 | 78 | 1014.7 |
| 20260508023721 | 69 | 44 | 0.9 | 4.3 | 0.00 | 0.04 | 0.04 | 78 | 1014.7 |
| 20260508023631 | 69 | 44 | 1.7 | 5.2 | 0.00 | 0.04 | 0.04 | 78 | 1014.7 |
| 20260508023529 | 69 | 44 | 1.7 | 5.2 | 0.00 | 0.04 | 0.04 | 78 | 1014.8 |
| 20260508023418 | 69 | 360 | 2.6 | 5.2 | 0.00 | 0.04 | 0.04 | 77 | 1014.7 |
| 20260508023331 | 69 | 13 | 2.6 | 5.2 | 0.00 | 0.04 | 0.04 | 77 | 1014.7 |
| 20260508023238 | 69 | 22 | 1.7 | 5.2 | 0.00 | 0.04 | 0.04 | 77 | 1014.6 |
| 20260508023201 | 69 | 22 | 1.7 | 5.2 | 0.00 | 0.04 | 0.04 | 77 | 1014.6 |
| 20260508023013 | 69 | 22 | 0.9 | 5.2 | 0.00 | 0.04 | 0.04 | 77 | 1014.5 |
| 20260508022920 | 69 | 21 | 1.7 | 5.2 | 0.00 | 0.04 | 0.04 | 77 | 1014.5 |
| 20260508022834 | 69 | 29 | 2.6 | 5.2 | 0.00 | 0.04 | 0.04 | 77 | 1014.4 |
| 20260508022714 | 69 | 17 | 1.7 | 7.0 | 0.00 | 0.04 | 0.04 | 77 | 1014.4 |
| 20260508022648 | 69 | 17 | 1.7 | 7.0 | 0.00 | 0.04 | 0.04 | 77 | 1014.4 |
| 20260508022523 | 69 | 16 | 0.9 | 7.0 | 0.00 | 0.04 | 0.04 | 77 | 1014.4 |
| 20260508022431 | 69 | 16 | 0.9 | 7.0 | 0.00 | 0.04 | 0.04 | 77 | 1014.3 |
| 20260508022318 | 69 | 15 | 1.7 | 7.0 | 0.00 | 0.04 | 0.04 | 77 | 1014.3 |
| 20260508022213 | 69 | 15 | 1.7 | 7.0 | 0.00 | 0.04 | 0.04 | 77 | 1014.3 |
| 20260508022131 | 69 | 28 | 1.7 | 7.0 | 0.00 | 0.04 | 0.04 | 77 | 1014.3 |
| 20260508022034 | 69 | 28 | 2.6 | 7.0 | 0.00 | 0.04 | 0.04 | 77 | 1014.4 |
| 20260508021921 | 70 | 27 | 2.6 | 7.0 | 0.00 | 0.04 | 0.04 | 77 | 1014.4 |
| 20260508021827 | 70 | 49 | 0.9 | 4.3 | 0.00 | 0.04 | 0.04 | 77 | 1014.4 |
| 20260508021712 | 70 | 50 | 1.7 | 4.3 | 0.00 | 0.04 | 0.04 | 77 | 1014.4 |
| 20260508021640 | 70 | 50 | 1.7 | 4.3 | 0.00 | 0.04 | 0.04 | 77 | 1014.4 |
| 20260508021514 | 70 | 50 | 2.6 | 4.3 | 0.00 | 0.04 | 0.04 | 77 | 1014.3 |
| 20260508021420 | 70 | 49 | 1.7 | 7.0 | 0.00 | 0.04 | 0.04 | 77 | 1014.3 |
| 20260508021335 | 70 | 40 | 1.7 | 7.0 | 0.00 | 0.04 | 0.04 | 77 | 1014.3 |
| 20260508021211 | 70 | 39 | 1.7 | 7.0 | 0.00 | 0.04 | 0.04 | 77 | 1014.3 |
| 20260508021145 | 70 | 38 | 1.7 | 7.0 | 0.00 | 0.04 | 0.04 | 77 | 1014.3 |
| 20260508021045 | 70 | 38 | 1.7 | 7.0 | 0.00 | 0.04 | 0.04 | 77 | 1014.4 |
| 20260508020937 | 70 | 348 | 0.9 | 7.0 | 0.00 | 0.04 | 0.04 | 77 | 1014.4 |
| 20260508020824 | 70 | 346 | 1.7 | 7.0 | 0.00 | 0.04 | 0.04 | 77 | 1014.4 |
| 20260508020741 | 70 | 32 | 1.7 | 7.0 | 0.00 | 0.04 | 0.04 | 77 | 1014.4 |
| 20260508020632 | 70 | 31 | 2.6 | 7.0 | 0.00 | 0.04 | 0.04 | 77 | 1014.4 |
| 20260508020525 | 70 | 32 | 2.6 | 7.0 | 0.00 | 0.04 | 0.04 | 77 | 1014.4 |
| 20260508020423 | 70 | 355 | 2.6 | 5.2 | 0.00 | 0.04 | 0.04 | 77 | 1014.4 |
| 20260508020351 | 70 | 30 | 2.6 | 5.2 | 0.00 | 0.04 | 0.04 | 77 | 1014.3 |
| 20260508020215 | 70 | 34 | 1.7 | 5.2 | 0.00 | 0.04 | 0.04 | 77 | 1014.3 |
| 20260508020140 | 70 | 34 | 1.7 | 5.2 | 0.00 | 0.04 | 0.04 | 77 | 1014.3 |
| 20260508020013 | 70 | 5 | 0.9 | 5.2 | 0.00 | 0.04 | 0.04 | 77 | 1014.2 |
| 20260508015922 | 70 | 5 | 1.7 | 5.2 | 0.00 | 0.04 | 0.04 | 77 | 1014.2 |
| 20260508015811 | 70 | 5 | 2.6 | 6.1 | 0.00 | 0.04 | 0.04 | 77 | 1014.2 |
| 20260508015725 | 70 | 13 | 1.7 | 3.5 | 0.00 | 0.04 | 0.04 | 77 | 1014.2 |
| 20260508015708 | 70 | 13 | 1.7 | 3.5 | 0.00 | 0.04 | 0.04 | 77 | 1014.2 |
| 20260508015542 | 70 | 11 | 1.7 | 8.7 | 0.00 | 0.04 | 0.04 | 77 | 1014.2 |
| 20260508015456 | 70 | 11 | 0.9 | 8.7 | 0.00 | 0.04 | 0.04 | 77 | 1014.2 |
| 20260508015322 | 70 | 11 | 0.9 | 8.7 | 0.00 | 0.04 | 0.04 | 76 | 1014.2 |
| 20260508015211 | 70 | 11 | 0.0 | 8.7 | 0.00 | 0.04 | 0.04 | 76 | 1014.1 |
| 20260508015129 | 70 | 10 | 0.0 | 8.7 | 0.00 | 0.04 | 0.04 | 76 | 1014.1 |
| 20260508015031 | 70 | 10 | 0.9 | 8.7 | 0.00 | 0.04 | 0.04 | 76 | 1014.1 |
| 20260508014938 | 70 | 10 | 2.6 | 8.7 | 0.00 | 0.04 | 0.04 | 76 | 1014.1 |
| 20260508014831 | 70 | 10 | 2.6 | 8.7 | 0.00 | 0.04 | 0.04 | 76 | 1014.1 |
| 20260508014717 | 70 | 36 | 3.5 | 8.7 | 0.00 | 0.04 | 0.04 | 76 | 1014.1 |
| 20260508014636 | 70 | 36 | 2.6 | 8.7 | 0.00 | 0.04 | 0.04 | 76 | 1014.0 |
| 20260508014537 | 70 | 22 | 1.7 | 5.2 | 0.00 | 0.04 | 0.04 | 76 | 1014.0 |
| 20260508014424 | 70 | 22 | 1.7 | 5.2 | 0.00 | 0.04 | 0.04 | 76 | 1013.9 |
| 20260508014331 | 70 | 355 | 1.7 | 4.3 | 0.00 | 0.04 | 0.04 | 76 | 1014.0 |
| 20260508014217 | 70 | 32 | 1.7 | 4.3 | 0.00 | 0.04 | 0.04 | 76 | 1014.0 |
| 20260508014201 | 70 | 32 | 1.7 | 4.3 | 0.00 | 0.04 | 0.04 | 76 | 1013.9 |
| 20260508014020 | 70 | 33 | 1.7 | 4.3 | 0.00 | 0.04 | 0.04 | 76 | 1013.8 |
| 20260508013933 | 70 | 41 | 1.7 | 4.3 | 0.00 | 0.04 | 0.04 | 76 | 1013.8 |
| 20260508013819 | 70 | 38 | 1.7 | 4.3 | 0.00 | 0.04 | 0.04 | 76 | 1013.7 |
| 20260508013715 | 70 | 38 | 1.7 | 4.3 | 0.00 | 0.04 | 0.04 | 76 | 1013.6 |
| 20260508013628 | 70 | 42 | 1.7 | 4.3 | 0.00 | 0.04 | 0.04 | 76 | 1013.6 |
| 20260508013525 | 70 | 30 | 1.7 | 4.3 | 0.00 | 0.04 | 0.04 | 76 | 1013.5 |
| 20260508013436 | 70 | 11 | 1.7 | 3.5 | 0.00 | 0.04 | 0.04 | 76 | 1013.6 |
| 20260508013328 | 70 | 11 | 0.9 | 3.5 | 0.00 | 0.04 | 0.04 | 76 | 1013.6 |
| 20260508013214 | 70 | 9 | 0.9 | 3.5 | 0.00 | 0.04 | 0.04 | 76 | 1013.7 |
| 20260508013140 | 70 | 9 | 1.7 | 3.5 | 0.00 | 0.04 | 0.04 | 76 | 1013.7 |
| 20260508013016 | 70 | 9 | 1.7 | 5.2 | 0.00 | 0.04 | 0.04 | 76 | 1013.8 |
| 20260508012923 | 70 | 9 | 1.7 | 5.2 | 0.00 | 0.04 | 0.04 | 76 | 1013.8 |
| 20260508012813 | 71 | 10 | 0.9 | 7.8 | 0.00 | 0.04 | 0.04 | 76 | 1013.9 |
| 20260508012739 | 71 | 10 | 0.9 | 7.8 | 0.00 | 0.04 | 0.04 | 76 | 1013.9 |
| 20260508012623 | 71 | 10 | 1.7 | 7.8 | 0.00 | 0.04 | 0.04 | 75 | 1013.9 |
| 20260508012544 | 71 | 10 | 1.7 | 7.8 | 0.00 | 0.04 | 0.04 | 75 | 1013.9 |
| 20260508012456 | 71 | 9 | 1.7 | 7.8 | 0.00 | 0.04 | 0.04 | 75 | 1013.9 |
| 20260508012343 | 71 | 9 | 1.7 | 8.7 | 0.00 | 0.04 | 0.04 | 75 | 1013.9 |
| 20260508012222 | 71 | 9 | 2.6 | 8.7 | 0.00 | 0.04 | 0.04 | 75 | 1013.9 |
| 20260508012133 | 71 | 9 | 3.5 | 8.7 | 0.00 | 0.04 | 0.04 | 75 | 1013.9 |
| 20260508012028 | 71 | 23 | 2.6 | 8.7 | 0.00 | 0.04 | 0.04 | 75 | 1013.9 |
| 20260508011913 | 71 | 5 | 2.6 | 8.7 | 0.00 | 0.04 | 0.04 | 75 | 1013.9 |
| 20260508011828 | 71 | 39 | 2.6 | 9.6 | 0.00 | 0.04 | 0.04 | 75 | 1013.9 |
| 20260508011713 | 71 | 28 | 1.7 | 9.6 | 0.00 | 0.04 | 0.04 | 75 | 1013.9 |
| 20260508011635 | 71 | 29 | 1.7 | 9.6 | 0.00 | 0.04 | 0.04 | 75 | 1013.9 |
| 20260508011536 | 71 | 29 | 3.5 | 9.6 | 0.00 | 0.04 | 0.04 | 75 | 1013.9 |
| 20260508011422 | 71 | 29 | 4.3 | 9.6 | 0.00 | 0.04 | 0.04 | 75 | 1013.9 |
| 20260508011329 | 71 | 44 | 4.3 | 9.6 | 0.00 | 0.04 | 0.04 | 75 | 1014.0 |
| 20260508011223 | 71 | 360 | 3.5 | 9.6 | 0.00 | 0.04 | 0.04 | 74 | 1013.9 |
| 20260508011123 | 71 | 344 | 5.2 | 9.6 | 0.00 | 0.04 | 0.04 | 75 | 1014.0 |
| 20260508011018 | 71 | 53 | 4.3 | 9.6 | 0.00 | 0.04 | 0.04 | 75 | 1014.0 |
| 20260508010932 | 71 | 13 | 3.5 | 9.6 | 0.00 | 0.04 | 0.04 | 75 | 1014.0 |
| 20260508010817 | 71 | 350 | 2.6 | 7.8 | 0.00 | 0.04 | 0.04 | 75 | 1013.9 |
| 20260508010714 | 71 | 349 | 3.5 | 7.8 | 0.00 | 0.04 | 0.04 | 75 | 1013.9 |
| 20260508010628 | 71 | 360 | 3.5 | 7.8 | 0.00 | 0.04 | 0.04 | 75 | 1013.9 |
| 20260508010526 | 71 | 355 | 3.5 | 7.8 | 0.00 | 0.04 | 0.04 | 74 | 1013.9 |
| 20260508010440 | 71 | 349 | 3.5 | 9.6 | 0.00 | 0.04 | 0.04 | 74 | 1013.9 |
| 20260508010326 | 71 | 355 | 3.5 | 9.6 | 0.00 | 0.04 | 0.04 | 74 | 1013.9 |
| 20260508010222 | 71 | 360 | 3.5 | 9.6 | 0.00 | 0.04 | 0.04 | 74 | 1013.8 |
| 20260508010136 | 71 | 349 | 3.5 | 9.6 | 0.00 | 0.04 | 0.04 | 74 | 1013.8 |
| 20260508010030 | 72 | 345 | 2.6 | 9.6 | 0.00 | 0.04 | 0.04 | 74 | 1013.8 |
| 20260508005925 | 72 | 19 | 1.7 | 9.6 | 0.00 | 0.04 | 0.04 | 74 | 1013.7 |
| 20260508005858 | 72 | 351 | 0.9 | 9.6 | 0.00 | 0.04 | 0.04 | 74 | 1013.7 |
| 20260508005725 | 72 | 350 | 1.7 | 9.6 | 0.00 | 0.04 | 0.04 | 74 | 1013.7 |
| 20260508005642 | 72 | 350 | 2.6 | 9.6 | 0.00 | 0.04 | 0.04 | 74 | 1013.7 |
| 20260508005518 | 72 | 5 | 3.5 | 9.6 | 0.00 | 0.04 | 0.04 | 74 | 1013.7 |
| 20260508005432 | 72 | 28 | 2.6 | 9.6 | 0.00 | 0.04 | 0.04 | 74 | 1013.7 |
| 20260508005324 | 72 | 27 | 2.6 | 9.6 | 0.00 | 0.04 | 0.04 | 74 | 1013.7 |
| 20260508005223 | 72 | 355 | 3.5 | 9.6 | 0.00 | 0.04 | 0.04 | 74 | 1013.7 |
| 20260508005028 | 72 | 351 | 2.6 | 9.6 | 0.00 | 0.04 | 0.04 | 74 | 1013.6 |
| 20260508004913 | 72 | 27 | 3.5 | 9.6 | 0.00 | 0.04 | 0.04 | 74 | 1013.6 |
| 20260508004828 | 72 | 29 | 4.3 | 9.6 | 0.00 | 0.04 | 0.04 | 74 | 1013.6 |
| 20260508004740 | 72 | 350 | 3.5 | 9.6 | 0.00 | 0.04 | 0.04 | 74 | 1013.6 |
| 20260508004703 | 72 | 11 | 4.3 | 9.6 | 0.00 | 0.04 | 0.04 | 74 | 1013.6 |
| 20260508004518 | 72 | 345 | 4.3 | 9.6 | 0.00 | 0.04 | 0.04 | 74 | 1013.6 |
| 20260508004450 | 72 | 15 | 3.5 | 7.8 | 0.00 | 0.04 | 0.04 | 74 | 1013.6 |
| 20260508004316 | 72 | 15 | 3.5 | 7.8 | 0.00 | 0.04 | 0.04 | 74 | 1013.5 |
| 20260508004212 | 73 | 5 | 2.6 | 7.8 | 0.00 | 0.04 | 0.04 | 74 | 1013.5 |
| 20260508004128 | 73 | 360 | 2.6 | 7.8 | 0.00 | 0.04 | 0.04 | 74 | 1013.5 |
| 20260508004023 | 73 | 32 | 1.7 | 7.8 | 0.00 | 0.04 | 0.04 | 74 | 1013.5 |
| 20260508003957 | 73 | 38 | 2.6 | 7.8 | 0.00 | 0.04 | 0.04 | 74 | 1013.4 |
| 20260508003824 | 73 | 355 | 3.5 | 7.8 | 0.00 | 0.04 | 0.04 | 73 | 1013.4 |
| 20260508003740 | 73 | 339 | 3.5 | 7.8 | 0.00 | 0.04 | 0.04 | 74 | 1013.5 |
| 20260508003652 | 73 | 346 | 3.5 | 7.8 | 0.00 | 0.04 | 0.04 | 74 | 1013.5 |
| 20260508003553 | 73 | 350 | 3.5 | 7.8 | 0.00 | 0.04 | 0.04 | 74 | 1013.5 |
| 20260508003422 | 73 | 346 | 2.6 | 7.8 | 0.00 | 0.04 | 0.04 | 74 | 1013.5 |
| 20260508003329 | 73 | 355 | 0.9 | 5.2 | 0.00 | 0.04 | 0.04 | 74 | 1013.4 |
| 20260508003214 | 73 | 5 | 0.9 | 8.7 | 0.00 | 0.04 | 0.04 | 73 | 1013.4 |
| 20260508003138 | 73 | 344 | 1.7 | 8.7 | 0.00 | 0.04 | 0.04 | 73 | 1013.4 |
| 20260508003012 | 73 | 343 | 1.7 | 8.7 | 0.00 | 0.04 | 0.04 | 73 | 1013.3 |
| 20260508002920 | 73 | 348 | 1.7 | 8.7 | 0.00 | 0.04 | 0.04 | 73 | 1013.3 |
| 20260508002856 | 73 | 348 | 1.7 | 8.7 | 0.00 | 0.04 | 0.04 | 73 | 1013.3 |
| 20260508002743 | 73 | 19 | 1.7 | 8.7 | 0.00 | 0.04 | 0.04 | 73 | 1013.3 |
| 20260508002645 | 73 | 19 | 2.6 | 8.7 | 0.00 | 0.04 | 0.04 | 73 | 1013.3 |
| 20260508002520 | 74 | 346 | 4.3 | 8.7 | 0.00 | 0.04 | 0.04 | 72 | 1013.3 |
| 20260508002454 | 74 | 338 | 4.3 | 8.7 | 0.00 | 0.04 | 0.04 | 72 | 1013.3 |
| 20260508002320 | 74 | 355 | 4.3 | 7.8 | 0.00 | 0.04 | 0.04 | 72 | 1013.3 |
| 20260508002221 | 74 | 342 | 3.5 | 7.8 | 0.00 | 0.04 | 0.04 | 73 | 1013.3 |
| 20260508002132 | 74 | 344 | 2.6 | 7.8 | 0.00 | 0.04 | 0.04 | 73 | 1013.4 |
| 20260508002026 | 74 | 12 | 1.7 | 5.2 | 0.00 | 0.04 | 0.04 | 73 | 1013.4 |
| 20260508001940 | 74 | 12 | 2.6 | 7.0 | 0.00 | 0.04 | 0.04 | 72 | 1013.4 |
| 20260508001826 | 74 | 338 | 1.7 | 7.0 | 0.00 | 0.04 | 0.04 | 73 | 1013.4 |
| 20260508001722 | 74 | 342 | 0.9 | 8.7 | 0.00 | 0.04 | 0.04 | 73 | 1013.4 |
| 20260508001639 | 74 | 355 | 0.9 | 8.7 | 0.00 | 0.04 | 0.04 | 72 | 1013.4 |
| 20260508001535 | 74 | 351 | 0.9 | 8.7 | 0.00 | 0.04 | 0.04 | 72 | 1013.3 |
| 20260508001419 | 74 | 351 | 1.7 | 8.7 | 0.00 | 0.04 | 0.04 | 72 | 1013.3 |
| 20260508001333 | 74 | 340 | 1.7 | 8.7 | 0.00 | 0.04 | 0.04 | 72 | 1013.3 |
| 20260508001227 | 74 | 338 | 2.6 | 8.7 | 0.00 | 0.04 | 0.04 | 72 | 1013.2 |
| 20260508001200 | 74 | 338 | 3.5 | 8.7 | 0.00 | 0.04 | 0.04 | 72 | 1013.2 |
| 20260508001019 | 74 | 5 | 3.5 | 8.7 | 0.00 | 0.04 | 0.04 | 72 | 1013.2 |
| 20260508000925 | 74 | 360 | 3.5 | 8.7 | 0.00 | 0.04 | 0.04 | 72 | 1013.3 |
| 20260508000832 | 75 | 355 | 3.5 | 8.7 | 0.00 | 0.04 | 0.04 | 72 | 1013.3 |
| 20260508000728 | 75 | 334 | 2.6 | 7.0 | 0.00 | 0.04 | 0.04 | 72 | 1013.3 |
| 20260508000641 | 75 | 355 | 2.6 | 7.0 | 0.00 | 0.04 | 0.04 | 72 | 1013.3 |
| 20260508000520 | 75 | 345 | 3.5 | 7.0 | 0.00 | 0.04 | 0.04 | 71 | 1013.3 |
| 20260508000457 | 75 | 342 | 1.7 | 7.0 | 0.00 | 0.04 | 0.04 | 71 | 1013.2 |
| 20260508000320 | 75 | 360 | 1.7 | 9.6 | 0.00 | 0.04 | 0.04 | 71 | 1013.3 |
| 20260508000227 | 75 | 360 | 2.6 | 9.6 | 0.00 | 0.04 | 0.04 | 71 | 1013.2 |
| 20260508000149 | 75 | 350 | 2.6 | 9.6 | 0.00 | 0.04 | 0.04 | 71 | 1013.3 |
| 20260508000024 | 75 | 350 | 3.5 | 9.6 | 0.00 | 0.04 | 0.04 | 71 | 1013.3 |
| 20260507235935 | 75 | 348 | 2.6 | 9.6 | 0.00 | 0.04 | 0.04 | 71 | 1013.2 |
| 20260507235823 | 75 | 355 | 2.6 | 9.6 | 0.00 | 0.04 | 0.04 | 71 | 1013.2 |
| 20260507235725 | 75 | 344 | 2.6 | 9.6 | 0.00 | 0.04 | 0.04 | 71 | 1013.2 |
| 20260507235654 | 75 | 360 | 2.6 | 9.6 | 0.00 | 0.04 | 0.04 | 71 | 1013.2 |
| 20260507235554 | 75 | 5 | 3.5 | 9.6 | 0.00 | 0.04 | 0.04 | 71 | 1013.2 |
| 20260507235422 | 76 | 15 | 2.6 | 5.2 | 0.00 | 0.04 | 0.04 | 71 | 1013.1 |
| 20260507235333 | 76 | 17 | 1.7 | 5.2 | 0.00 | 0.04 | 0.04 | 71 | 1013.2 |
| 20260507235228 | 76 | 360 | 1.7 | 5.2 | 0.00 | 0.04 | 0.04 | 71 | 1013.2 |
| 20260507235200 | 76 | 15 | 1.7 | 5.2 | 0.00 | 0.04 | 0.04 | 71 | 1013.2 |
| 20260507235036 | 76 | 5 | 2.6 | 5.2 | 0.00 | 0.04 | 0.04 | 71 | 1013.2 |
| 20260507234921 | 76 | 5 | 0.9 | 5.2 | 0.00 | 0.04 | 0.04 | 71 | 1013.2 |
| 20260507234835 | 76 | 19 | 0.0 | 5.2 | 0.00 | 0.04 | 0.04 | 71 | 1013.2 |
| 20260507234724 | 76 | 20 | 0.9 | 5.2 | 0.00 | 0.04 | 0.04 | 70 | 1013.2 |
| 20260507234640 | 76 | 20 | 0.9 | 5.2 | 0.00 | 0.04 | 0.04 | 70 | 1013.2 |
| 20260507234524 | 76 | 38 | 0.9 | 5.2 | 0.00 | 0.04 | 0.04 | 70 | 1013.2 |
| 20260507234448 | 76 | 355 | 0.9 | 5.2 | 0.00 | 0.04 | 0.04 | 70 | 1013.2 |
| 20260507234341 | 76 | 355 | 0.9 | 5.2 | 0.00 | 0.04 | 0.04 | 70 | 1013.2 |
| 20260507234239 | 76 | 28 | 1.7 | 5.2 | 0.00 | 0.04 | 0.04 | 70 | 1013.2 |
| 20260507234133 | 76 | 29 | 2.6 | 5.2 | 0.00 | 0.04 | 0.04 | 70 | 1013.2 |
| 20260507234028 | 76 | 38 | 2.6 | 7.0 | 0.00 | 0.04 | 0.04 | 70 | 1013.2 |
| 20260507233920 | 76 | 30 | 1.7 | 7.0 | 0.00 | 0.04 | 0.04 | 70 | 1013.3 |
| 20260507233828 | 76 | 24 | 1.7 | 7.0 | 0.00 | 0.04 | 0.04 | 70 | 1013.2 |
| 20260507233743 | 76 | 24 | 1.7 | 7.0 | 0.00 | 0.04 | 0.04 | 70 | 1013.3 |
| 20260507233634 | 76 | 24 | 1.7 | 7.0 | 0.00 | 0.04 | 0.04 | 70 | 1013.3 |
| 20260507233536 | 76 | 360 | 1.7 | 7.0 | 0.00 | 0.04 | 0.04 | 69 | 1013.3 |
| 20260507233447 | 76 | 350 | 2.6 | 7.8 | 0.00 | 0.04 | 0.04 | 70 | 1013.3 |
| 20260507233334 | 76 | 24 | 2.6 | 7.8 | 0.00 | 0.04 | 0.04 | 69 | 1013.3 |
| 20260507233220 | 77 | 30 | 1.7 | 7.8 | 0.00 | 0.04 | 0.04 | 69 | 1013.2 |
| 20260507233144 | 77 | 34 | 0.9 | 7.8 | 0.00 | 0.04 | 0.04 | 69 | 1013.2 |
| 20260507233019 | 77 | 33 | 1.7 | 7.8 | 0.00 | 0.04 | 0.04 | 69 | 1013.2 |
| 20260507232930 | 77 | 33 | 2.6 | 7.8 | 0.00 | 0.04 | 0.04 | 69 | 1013.2 |
| 20260507232843 | 77 | 32 | 2.6 | 7.8 | 0.00 | 0.04 | 0.04 | 69 | 1013.2 |
| 20260507232720 | 77 | 10 | 3.5 | 7.8 | 0.00 | 0.04 | 0.04 | 69 | 1013.2 |
| 20260507232645 | 77 | 13 | 3.5 | 7.8 | 0.00 | 0.04 | 0.04 | 69 | 1013.2 |
| 20260507232521 | 77 | 34 | 1.7 | 4.3 | 0.00 | 0.04 | 0.04 | 69 | 1013.2 |
| 20260507232419 | 77 | 360 | 1.7 | 4.3 | 0.00 | 0.04 | 0.04 | 69 | 1013.2 |
| 20260507232326 | 77 | 33 | 1.7 | 4.3 | 0.00 | 0.04 | 0.04 | 69 | 1013.2 |
| 20260507232222 | 77 | 33 | 0.9 | 7.8 | 0.00 | 0.04 | 0.04 | 69 | 1013.2 |
| 20260507232133 | 77 | 5 | 0.9 | 7.8 | 0.00 | 0.04 | 0.04 | 69 | 1013.2 |
| 20260507232030 | 77 | 5 | 0.9 | 7.8 | 0.00 | 0.04 | 0.04 | 69 | 1013.2 |
| 20260507231937 | 77 | 5 | 1.7 | 7.8 | 0.00 | 0.04 | 0.04 | 69 | 1013.2 |
| 20260507231827 | 77 | 5 | 1.7 | 7.8 | 0.00 | 0.04 | 0.04 | 69 | 1013.2 |
| 20260507231722 | 77 | 54 | 2.6 | 7.8 | 0.00 | 0.04 | 0.04 | 69 | 1013.2 |
| 20260507231657 | 77 | 54 | 2.6 | 7.8 | 0.00 | 0.04 | 0.04 | 69 | 1013.2 |
| 20260507231538 | 77 | 17 | 3.5 | 7.8 | 0.00 | 0.04 | 0.04 | 69 | 1013.2 |
| 20260507231425 | 77 | 360 | 3.5 | 7.8 | 0.00 | 0.04 | 0.04 | 69 | 1013.2 |
| 20260507231332 | 77 | 19 | 3.5 | 7.8 | 0.00 | 0.04 | 0.04 | 69 | 1013.2 |
| 20260507231223 | 77 | 13 | 3.5 | 7.8 | 0.00 | 0.04 | 0.04 | 69 | 1013.2 |
| 20260507231146 | 77 | 342 | 3.5 | 7.8 | 0.00 | 0.04 | 0.04 | 69 | 1013.2 |
| 20260507231022 | 77 | 350 | 1.7 | 7.0 | 0.00 | 0.04 | 0.04 | 69 | 1013.2 |
| 20260507230929 | 77 | 360 | 1.7 | 7.0 | 0.00 | 0.04 | 0.04 | 69 | 1013.2 |
| 20260507230843 | 77 | 5 | 1.7 | 7.0 | 0.00 | 0.04 | 0.04 | 69 | 1013.2 |
| 20260507230718 | 77 | 5 | 1.7 | 7.0 | 0.00 | 0.04 | 0.04 | 69 | 1013.3 |
| 20260507230630 | 77 | 347 | 1.7 | 7.0 | 0.00 | 0.04 | 0.04 | 69 | 1013.3 |
| 20260507230532 | 77 | 338 | 2.6 | 7.0 | 0.00 | 0.04 | 0.04 | 69 | 1013.3 |
| 20260507230419 | 77 | 30 | 2.6 | 7.0 | 0.00 | 0.04 | 0.04 | 68 | 1013.3 |
| 20260507230327 | 77 | 55 | 2.6 | 7.0 | 0.00 | 0.04 | 0.04 | 69 | 1013.3 |
| 20260507230218 | 77 | 10 | 3.5 | 7.0 | 0.00 | 0.04 | 0.04 | 69 | 1013.4 |
| 20260507230142 | 77 | 9 | 3.5 | 7.0 | 0.00 | 0.04 | 0.04 | 68 | 1013.4 |
| 20260507230018 | 77 | 28 | 2.6 | 7.0 | 0.00 | 0.04 | 0.04 | 69 | 1013.4 |
| 20260507225925 | 77 | 27 | 2.6 | 7.0 | 0.00 | 0.04 | 0.04 | 69 | 1013.4 |
| 20260507225831 | 77 | 355 | 0.9 | 7.0 | 0.00 | 0.04 | 0.04 | 69 | 1013.4 |
| 20260507225722 | 77 | 36 | 0.9 | 7.0 | 0.00 | 0.04 | 0.04 | 69 | 1013.4 |
| 20260507225706 | 77 | 36 | 1.7 | 7.0 | 0.00 | 0.04 | 0.04 | 69 | 1013.4 |
| 20260507225520 | 77 | 11 | 1.7 | 7.0 | 0.00 | 0.04 | 0.04 | 69 | 1013.3 |
| 20260507225434 | 77 | 21 | 1.7 | 7.0 | 0.00 | 0.04 | 0.04 | 69 | 1013.3 |
| 20260507225321 | 77 | 27 | 2.6 | 7.0 | 0.00 | 0.04 | 0.04 | 69 | 1013.3 |
| 20260507225226 | 77 | 340 | 3.5 | 7.8 | 0.00 | 0.04 | 0.04 | 69 | 1013.3 |
| 20260507225153 | 77 | 339 | 3.5 | 8.7 | 0.00 | 0.04 | 0.04 | 69 | 1013.3 |
| 20260507225029 | 77 | 340 | 1.7 | 8.7 | 0.00 | 0.04 | 0.04 | 69 | 1013.2 |
| 20260507224936 | 77 | 355 | 1.7 | 8.7 | 0.00 | 0.04 | 0.04 | 69 | 1013.2 |
| 20260507224842 | 78 | 345 | 2.6 | 8.7 | 0.00 | 0.04 | 0.04 | 69 | 1013.2 |
| 20260507224724 | 77 | 347 | 3.5 | 8.7 | 0.00 | 0.04 | 0.04 | 69 | 1013.3 |
| 20260507224636 | 77 | 48 | 3.5 | 8.7 | 0.00 | 0.04 | 0.04 | 69 | 1013.2 |
| 20260507224535 | 77 | 28 | 3.5 | 10.4 | 0.00 | 0.04 | 0.04 | 69 | 1013.2 |
| 20260507224449 | 77 | 360 | 4.3 | 10.4 | 0.00 | 0.04 | 0.04 | 69 | 1013.2 |
| 20260507224335 | 78 | 333 | 3.5 | 10.4 | 0.00 | 0.04 | 0.04 | 69 | 1013.2 |
| 20260507224222 | 78 | 9 | 2.6 | 10.4 | 0.00 | 0.04 | 0.04 | 69 | 1013.2 |
| 20260507224145 | 78 | 12 | 2.6 | 10.4 | 0.00 | 0.04 | 0.04 | 69 | 1013.2 |
| 20260507224021 | 78 | 47 | 2.6 | 10.4 | 0.00 | 0.04 | 0.04 | 68 | 1013.2 |
| 20260507223951 | 78 | 40 | 2.6 | 10.4 | 0.00 | 0.04 | 0.04 | 69 | 1013.2 |
| 20260507223843 | 78 | 346 | 2.6 | 10.4 | 0.00 | 0.04 | 0.04 | 68 | 1013.2 |
| 20260507223739 | 78 | 348 | 3.5 | 10.4 | 0.00 | 0.04 | 0.04 | 68 | 1013.2 |
| 20260507223650 | 78 | 355 | 4.3 | 10.4 | 0.00 | 0.04 | 0.04 | 68 | 1013.3 |
| 20260507223526 | 78 | 20 | 4.3 | 8.7 | 0.00 | 0.04 | 0.04 | 68 | 1013.2 |
| 20260507223432 | 78 | 332 | 4.3 | 8.7 | 0.00 | 0.04 | 0.04 | 68 | 1013.2 |
| 20260507223350 | 78 | 360 | 2.6 | 8.7 | 0.00 | 0.04 | 0.04 | 68 | 1013.2 |
| 20260507223247 | 78 | 355 | 1.7 | 7.0 | 0.00 | 0.04 | 0.04 | 69 | 1013.2 |
| 20260507223159 | 78 | 360 | 2.6 | 7.0 | 0.00 | 0.04 | 0.04 | 69 | 1013.1 |
| 20260507223033 | 78 | 360 | 2.6 | 7.0 | 0.00 | 0.04 | 0.04 | 69 | 1013.1 |
| 20260507222919 | 78 | 17 | 1.7 | 8.7 | 0.00 | 0.04 | 0.04 | 68 | 1013.2 |
| 20260507222833 | 78 | 25 | 2.6 | 8.7 | 0.00 | 0.04 | 0.04 | 68 | 1013.2 |
| 20260507222722 | 78 | 26 | 2.6 | 8.7 | 0.00 | 0.04 | 0.04 | 68 | 1013.2 |
| 20260507222706 | 78 | 11 | 1.7 | 8.7 | 0.00 | 0.04 | 0.04 | 68 | 1013.2 |
| 20260507222521 | 78 | 46 | 1.7 | 8.7 | 0.00 | 0.04 | 0.04 | 68 | 1013.2 |
| 20260507222428 | 78 | 47 | 2.6 | 8.7 | 0.00 | 0.04 | 0.04 | 68 | 1013.2 |
| 20260507222334 | 78 | 355 | 2.6 | 9.6 | 0.00 | 0.04 | 0.04 | 68 | 1013.2 |
| 20260507222221 | 78 | 355 | 3.5 | 9.6 | 0.00 | 0.04 | 0.04 | 68 | 1013.2 |
| 20260507222147 | 78 | 24 | 2.6 | 9.6 | 0.00 | 0.04 | 0.04 | 68 | 1013.2 |
| 20260507222022 | 78 | 5 | 1.7 | 9.6 | 0.00 | 0.04 | 0.04 | 68 | 1013.2 |
| 20260507221929 | 78 | 360 | 1.7 | 9.6 | 0.00 | 0.04 | 0.04 | 68 | 1013.2 |
| 20260507221824 | 78 | 5 | 3.5 | 9.6 | 0.00 | 0.04 | 0.04 | 67 | 1013.2 |
| 20260507221740 | 79 | 360 | 4.3 | 9.6 | 0.00 | 0.04 | 0.04 | 67 | 1013.2 |
| 20260507221631 | 79 | 16 | 3.5 | 9.6 | 0.00 | 0.04 | 0.04 | 67 | 1013.2 |
| 20260507221558 | 79 | 342 | 3.5 | 9.6 | 0.00 | 0.04 | 0.04 | 67 | 1013.2 |
| 20260507221424 | 79 | 9 | 1.7 | 7.8 | 0.00 | 0.04 | 0.04 | 68 | 1013.2 |
| 20260507221331 | 79 | 355 | 0.9 | 7.8 | 0.00 | 0.04 | 0.04 | 68 | 1013.1 |
| 20260507221221 | 79 | 33 | 1.7 | 7.8 | 0.00 | 0.04 | 0.04 | 68 | 1013.1 |
| 20260507221205 | 79 | 33 | 2.6 | 7.8 | 0.00 | 0.04 | 0.04 | 68 | 1013.1 |
| 20260507221020 | 79 | 349 | 2.6 | 7.8 | 0.00 | 0.04 | 0.04 | 69 | 1013.1 |
| 20260507220927 | 78 | 345 | 3.5 | 7.8 | 0.00 | 0.04 | 0.04 | 68 | 1013.1 |
| 20260507220837 | 78 | 34 | 3.5 | 7.8 | 0.00 | 0.04 | 0.04 | 68 | 1013.1 |
| 20260507220723 | 79 | 22 | 3.5 | 7.8 | 0.00 | 0.04 | 0.04 | 67 | 1013.1 |
| 20260507220646 | 79 | 30 | 2.6 | 7.8 | 0.00 | 0.04 | 0.04 | 67 | 1013.1 |
| 20260507220523 | 79 | 330 | 1.7 | 5.2 | 0.00 | 0.04 | 0.04 | 68 | 1013.1 |
| 20260507220430 | 79 | 330 | 2.6 | 7.8 | 0.00 | 0.04 | 0.04 | 67 | 1013.1 |
| 20260507220322 | 79 | 333 | 3.5 | 7.8 | 0.00 | 0.04 | 0.04 | 68 | 1013.2 |
| 20260507220226 | 79 | 22 | 3.5 | 7.8 | 0.00 | 0.04 | 0.04 | 68 | 1013.1 |
| 20260507220130 | 79 | 9 | 2.6 | 9.6 | 0.00 | 0.04 | 0.04 | 67 | 1013.1 |
| 20260507220033 | 79 | 26 | 1.7 | 9.6 | 0.00 | 0.04 | 0.04 | 67 | 1013.1 |
| 20260507215920 | 79 | 341 | 2.6 | 9.6 | 0.00 | 0.04 | 0.04 | 68 | 1013.2 |
| 20260507215830 | 79 | 33 | 2.6 | 9.6 | 0.00 | 0.04 | 0.04 | 68 | 1013.2 |
| 20260507215727 | 79 | 44 | 2.6 | 9.6 | 0.00 | 0.04 | 0.04 | 67 | 1013.2 |
| 20260507215639 | 79 | 30 | 3.5 | 9.6 | 0.00 | 0.04 | 0.04 | 68 | 1013.2 |
| 20260507215534 | 79 | 35 | 3.5 | 9.6 | 0.00 | 0.04 | 0.04 | 68 | 1013.2 |
| 20260507215422 | 79 | 13 | 3.5 | 9.6 | 0.00 | 0.04 | 0.04 | 68 | 1013.2 |
| 20260507215335 | 79 | 346 | 3.5 | 9.6 | 0.00 | 0.04 | 0.04 | 68 | 1013.2 |
| 20260507215218 | 79 | 360 | 1.7 | 9.6 | 0.00 | 0.04 | 0.04 | 68 | 1013.2 |
| 20260507215152 | 79 | 360 | 2.6 | 9.6 | 0.00 | 0.04 | 0.04 | 68 | 1013.2 |
| 20260507215019 | 78 | 355 | 2.6 | 9.6 | 0.00 | 0.04 | 0.04 | 68 | 1013.2 |
| 20260507214954 | 78 | 9 | 1.7 | 9.6 | 0.00 | 0.04 | 0.04 | 68 | 1013.2 |
| 20260507214818 | 79 | 5 | 1.7 | 9.6 | 0.00 | 0.04 | 0.04 | 68 | 1013.2 |
| 20260507214719 | 79 | 351 | 4.3 | 9.6 | 0.00 | 0.04 | 0.04 | 67 | 1013.2 |
| 20260507214631 | 79 | 346 | 4.3 | 9.6 | 0.00 | 0.04 | 0.04 | 67 | 1013.2 |
| 20260507214534 | 79 | 360 | 3.5 | 9.6 | 0.00 | 0.04 | 0.04 | 67 | 1013.2 |
| 20260507214441 | 79 | 346 | 2.6 | 7.8 | 0.00 | 0.04 | 0.04 | 67 | 1013.2 |
| 20260507214325 | 79 | 344 | 3.5 | 7.8 | 0.00 | 0.04 | 0.04 | 67 | 1013.2 |
| 20260507214240 | 79 | 5 | 4.3 | 7.8 | 0.00 | 0.04 | 0.04 | 69 | 1013.2 |
| 20260507214139 | 79 | 360 | 4.3 | 7.8 | 0.00 | 0.04 | 0.04 | 69 | 1013.2 |
| 20260507214041 | 79 | 360 | 3.5 | 8.7 | 0.00 | 0.04 | 0.04 | 68 | 1013.2 |
| 20260507213929 | 79 | 360 | 2.6 | 8.7 | 0.00 | 0.04 | 0.04 | 68 | 1013.2 |
| 20260507213836 | 79 | 342 | 1.7 | 8.7 | 0.00 | 0.04 | 0.04 | 70 | 1013.2 |
| 20260507213723 | 78 | 45 | 1.7 | 8.7 | 0.00 | 0.04 | 0.04 | 68 | 1013.2 |
| 20260507213629 | 78 | 46 | 1.7 | 8.7 | 0.00 | 0.04 | 0.04 | 68 | 1013.2 |
| 20260507213525 | 78 | 47 | 2.6 | 8.7 | 0.00 | 0.04 | 0.04 | 68 | 1013.2 |
| 20260507213500 | 78 | 22 | 1.7 | 8.7 | 0.00 | 0.04 | 0.04 | 68 | 1013.2 |
| 20260507213325 | 78 | 355 | 2.6 | 8.7 | 0.00 | 0.04 | 0.04 | 68 | 1013.2 |
| 20260507213221 | 78 | 348 | 3.5 | 8.7 | 0.00 | 0.04 | 0.04 | 67 | 1013.2 |
| 20260507213153 | 78 | 45 | 2.6 | 7.8 | 0.00 | 0.04 | 0.04 | 67 | 1013.2 |
| 20260507213032 | 78 | 41 | 2.6 | 7.8 | 0.00 | 0.04 | 0.04 | 68 | 1013.1 |
| 20260507212936 | 78 | 37 | 3.5 | 7.8 | 0.00 | 0.04 | 0.04 | 67 | 1013.2 |
| 20260507212824 | 78 | 32 | 2.6 | 7.8 | 0.00 | 0.04 | 0.04 | 68 | 1013.1 |
| 20260507212720 | 78 | 27 | 1.7 | 7.0 | 0.00 | 0.04 | 0.04 | 67 | 1013.1 |
| 20260507212654 | 78 | 355 | 2.6 | 7.8 | 0.00 | 0.04 | 0.04 | 68 | 1013.1 |
| 20260507212535 | 78 | 355 | 3.5 | 7.8 | 0.00 | 0.04 | 0.04 | 68 | 1013.1 |
| 20260507212426 | 78 | 42 | 2.6 | 7.8 | 0.00 | 0.04 | 0.04 | 68 | 1013.1 |
| 20260507212333 | 78 | 344 | 3.5 | 7.8 | 0.00 | 0.04 | 0.04 | 68 | 1013.1 |
| 20260507212220 | 78 | 30 | 3.5 | 7.8 | 0.00 | 0.04 | 0.04 | 68 | 1013.1 |
| 20260507212142 | 79 | 360 | 2.6 | 7.8 | 0.00 | 0.04 | 0.04 | 67 | 1013.1 |
| 20260507212039 | 79 | 355 | 1.7 | 7.8 | 0.00 | 0.04 | 0.04 | 67 | 1013.0 |
| 20260507211933 | 79 | 360 | 2.6 | 7.8 | 0.00 | 0.04 | 0.04 | 68 | 1013.0 |
| 20260507211843 | 79 | 22 | 3.5 | 8.7 | 0.00 | 0.04 | 0.04 | 67 | 1013.0 |
| 20260507211738 | 79 | 355 | 3.5 | 8.7 | 0.00 | 0.04 | 0.04 | 67 | 1013.0 |
| 20260507211629 | 79 | 350 | 2.6 | 8.7 | 0.00 | 0.04 | 0.04 | 68 | 1013.0 |
| 20260507211553 | 79 | 15 | 2.6 | 8.7 | 0.00 | 0.04 | 0.04 | 68 | 1013.0 |
| 20260507211419 | 79 | 350 | 3.5 | 8.7 | 0.00 | 0.04 | 0.04 | 67 | 1013.0 |
| 20260507211326 | 79 | 347 | 2.6 | 8.7 | 0.00 | 0.04 | 0.04 | 68 | 1013.0 |
| 20260507211218 | 79 | 15 | 0.9 | 8.7 | 0.00 | 0.04 | 0.04 | 68 | 1013.0 |
| 20260507211140 | 79 | 9 | 1.7 | 8.7 | 0.00 | 0.04 | 0.04 | 69 | 1013.1 |
| 20260507211036 | 79 | 10 | 3.5 | 8.7 | 0.00 | 0.04 | 0.04 | 68 | 1013.0 |
| 20260507210922 | 79 | 323 | 3.5 | 7.0 | 0.00 | 0.04 | 0.04 | 68 | 1013.0 |
| 20260507210836 | 79 | 15 | 3.5 | 7.0 | 0.00 | 0.04 | 0.04 | 68 | 1013.0 |
| 20260507210724 | 79 | 355 | 3.5 | 7.0 | 0.00 | 0.04 | 0.04 | 68 | 1013.1 |
| 20260507210640 | 79 | 5 | 2.6 | 7.0 | 0.00 | 0.04 | 0.04 | 68 | 1013.1 |
| 20260507210544 | 79 | 5 | 2.6 | 5.2 | 0.00 | 0.04 | 0.04 | 69 | 1013.1 |
| 20260507210430 | 79 | 32 | 2.6 | 7.0 | 0.00 | 0.04 | 0.04 | 68 | 1013.1 |
| 20260507210318 | 79 | 48 | 1.7 | 7.0 | 0.00 | 0.04 | 0.04 | 69 | 1013.1 |
| 20260507210218 | 78 | 5 | 2.6 | 9.6 | 0.00 | 0.04 | 0.04 | 69 | 1013.0 |
| 20260507210131 | 78 | 38 | 2.6 | 9.6 | 0.00 | 0.04 | 0.04 | 68 | 1013.0 |
| 20260507210025 | 78 | 45 | 2.6 | 9.6 | 0.00 | 0.04 | 0.04 | 68 | 1013.0 |
| 20260507205939 | 79 | 46 | 2.6 | 9.6 | 0.00 | 0.04 | 0.04 | 67 | 1013.0 |
| 20260507205826 | 79 | 45 | 2.6 | 9.6 | 0.00 | 0.04 | 0.04 | 68 | 1013.1 |
| 20260507205720 | 79 | 355 | 1.7 | 9.6 | 0.00 | 0.04 | 0.04 | 68 | 1013.0 |
| 20260507205630 | 79 | 355 | 2.6 | 9.6 | 0.00 | 0.04 | 0.04 | 68 | 1013.1 |
| 20260507205537 | 79 | 18 | 3.5 | 9.6 | 0.00 | 0.04 | 0.04 | 68 | 1013.1 |
| 20260507205443 | 79 | 5 | 4.3 | 9.6 | 0.00 | 0.04 | 0.04 | 68 | 1013.1 |
| 20260507205329 | 79 | 5 | 4.3 | 9.6 | 0.00 | 0.04 | 0.04 | 68 | 1013.0 |
| 20260507205242 | 79 | 29 | 3.5 | 5.2 | 0.00 | 0.04 | 0.04 | 68 | 1013.0 |
| 20260507205137 | 79 | 28 | 2.6 | 5.2 | 0.00 | 0.04 | 0.04 | 68 | 1013.0 |
| 20260507205039 | 79 | 10 | 1.7 | 5.2 | 0.00 | 0.04 | 0.04 | 70 | 1013.0 |
| 20260507204929 | 79 | 343 | 1.7 | 4.3 | 0.00 | 0.04 | 0.04 | 70 | 1013.0 |
| 20260507204843 | 78 | 343 | 0.9 | 7.0 | 0.00 | 0.04 | 0.04 | 70 | 1013.0 |
| 20260507204740 | 78 | 11 | 0.9 | 7.0 | 0.00 | 0.04 | 0.04 | 69 | 1013.0 |
| 20260507204652 | 78 | 11 | 0.9 | 7.0 | 0.00 | 0.04 | 0.04 | 69 | 1013.0 |
| 20260507204528 | 78 | 11 | 0.9 | 7.0 | 0.00 | 0.04 | 0.04 | 69 | 1013.1 |
| 20260507204434 | 78 | 360 | 1.7 | 7.0 | 0.00 | 0.04 | 0.04 | 69 | 1013.1 |
| 20260507204325 | 78 | 5 | 2.6 | 7.0 | 0.00 | 0.04 | 0.04 | 70 | 1013.1 |
| 20260507204224 | 78 | 36 | 2.6 | 7.0 | 0.00 | 0.04 | 0.04 | 69 | 1013.1 |
| 20260507204134 | 78 | 355 | 2.6 | 7.0 | 0.00 | 0.04 | 0.04 | 69 | 1013.1 |
| 20260507204030 | 78 | 23 | 1.7 | 7.0 | 0.00 | 0.04 | 0.04 | 69 | 1013.1 |
| 20260507203945 | 78 | 5 | 1.7 | 5.2 | 0.00 | 0.04 | 0.04 | 69 | 1013.1 |
| 20260507203831 | 78 | 41 | 1.7 | 5.2 | 0.00 | 0.04 | 0.04 | 69 | 1013.0 |
| 20260507203721 | 78 | 5 | 1.7 | 5.2 | 0.00 | 0.04 | 0.04 | 69 | 1013.1 |
| 20260507203637 | 78 | 5 | 2.6 | 5.2 | 0.00 | 0.04 | 0.04 | 70 | 1013.1 |
| 20260507203519 | 78 | 347 | 1.7 | 5.2 | 0.00 | 0.04 | 0.04 | 69 | 1013.1 |
| 20260507203425 | 78 | 350 | 1.7 | 4.3 | 0.00 | 0.04 | 0.04 | 70 | 1013.1 |
| 20260507203339 | 78 | 345 | 1.7 | 7.0 | 0.00 | 0.04 | 0.04 | 69 | 1013.2 |
| 20260507203219 | 78 | 342 | 2.6 | 7.0 | 0.00 | 0.04 | 0.04 | 68 | 1013.2 |
| 20260507203151 | 78 | 341 | 2.6 | 7.8 | 0.00 | 0.04 | 0.04 | 68 | 1013.2 |
| 20260507203026 | 78 | 330 | 1.7 | 7.8 | 0.00 | 0.04 | 0.04 | 68 | 1013.2 |
| 20260507202929 | 79 | 348 | 1.7 | 7.8 | 0.00 | 0.04 | 0.04 | 69 | 1013.2 |
| 20260507202844 | 79 | 32 | 1.7 | 7.8 | 0.00 | 0.04 | 0.04 | 69 | 1013.2 |
| 20260507202720 | 79 | 5 | 0.9 | 7.8 | 0.00 | 0.04 | 0.04 | 69 | 1013.2 |
| 20260507202630 | 79 | 5 | 1.7 | 7.8 | 0.00 | 0.04 | 0.04 | 69 | 1013.3 |
| 20260507202533 | 79 | 5 | 3.5 | 7.8 | 0.00 | 0.04 | 0.04 | 68 | 1013.3 |
| 20260507202419 | 79 | 355 | 3.5 | 7.8 | 0.00 | 0.04 | 0.04 | 68 | 1013.3 |
| 20260507202325 | 79 | 360 | 2.6 | 7.8 | 0.00 | 0.04 | 0.04 | 69 | 1013.3 |
| 20260507202222 | 79 | 355 | 1.7 | 7.0 | 0.00 | 0.04 | 0.04 | 70 | 1013.3 |
| 20260507202133 | 79 | 360 | 1.7 | 7.0 | 0.00 | 0.04 | 0.04 | 70 | 1013.3 |
| 20260507202034 | 78 | 360 | 2.6 | 7.0 | 0.00 | 0.04 | 0.04 | 70 | 1013.3 |
| 20260507201918 | 78 | 355 | 2.6 | 7.0 | 0.00 | 0.04 | 0.04 | 71 | 1013.3 |
| 20260507201831 | 78 | 49 | 1.7 | 7.0 | 0.00 | 0.04 | 0.04 | 70 | 1013.2 |
| 20260507201728 | 78 | 5 | 0.9 | 7.0 | 0.00 | 0.04 | 0.04 | 70 | 1013.2 |
| 20260507201639 | 78 | 40 | 0.9 | 7.0 | 0.00 | 0.04 | 0.04 | 70 | 1013.2 |
| 20260507201519 | 78 | 40 | 1.7 | 7.0 | 0.00 | 0.04 | 0.04 | 70 | 1013.2 |
| 20260507201426 | 78 | 40 | 2.6 | 7.0 | 0.00 | 0.04 | 0.04 | 71 | 1013.2 |
| 20260507201333 | 78 | 19 | 2.6 | 7.0 | 0.00 | 0.04 | 0.04 | 70 | 1013.3 |
| 20260507201219 | 78 | 21 | 2.6 | 7.0 | 0.00 | 0.04 | 0.04 | 69 | 1013.2 |
| 20260507201142 | 78 | 28 | 2.6 | 7.0 | 0.00 | 0.04 | 0.04 | 70 | 1013.2 |
| 20260507201021 | 78 | 5 | 1.7 | 4.3 | 0.00 | 0.04 | 0.04 | 69 | 1013.3 |
| 20260507200927 | 78 | 13 | 1.7 | 4.3 | 0.00 | 0.04 | 0.04 | 70 | 1013.3 |
| 20260507200821 | 78 | 17 | 2.6 | 4.3 | 0.00 | 0.04 | 0.04 | 70 | 1013.3 |
| 20260507200718 | 78 | 18 | 2.6 | 4.3 | 0.00 | 0.04 | 0.04 | 70 | 1013.2 |
| 20260507200651 | 78 | 5 | 1.7 | 7.8 | 0.00 | 0.04 | 0.04 | 70 | 1013.2 |
| 20260507200525 | 77 | 37 | 1.7 | 7.8 | 0.00 | 0.04 | 0.04 | 72 | 1013.2 |
| 20260507200436 | 77 | 38 | 2.6 | 7.8 | 0.00 | 0.04 | 0.04 | 70 | 1013.3 |
| 20260507200323 | 77 | 360 | 1.7 | 7.8 | 0.00 | 0.04 | 0.04 | 71 | 1013.3 |
| 20260507200225 | 77 | 344 | 1.7 | 7.8 | 0.00 | 0.04 | 0.04 | 71 | 1013.3 |
| 20260507200130 | 77 | 343 | 1.7 | 7.8 | 0.00 | 0.04 | 0.04 | 70 | 1013.3 |
| 20260507200052 | 77 | 342 | 2.6 | 7.8 | 0.00 | 0.04 | 0.04 | 71 | 1013.3 |
| 20260507195937 | 77 | 5 | 3.5 | 7.8 | 0.00 | 0.04 | 0.04 | 70 | 1013.4 |
| 20260507195855 | 77 | 360 | 4.3 | 7.8 | 0.00 | 0.04 | 0.04 | 70 | 1013.4 |
| 20260507195741 | 77 | 355 | 3.5 | 7.8 | 0.00 | 0.04 | 0.04 | 70 | 1013.4 |
| 20260507195726 | 77 | 5 | 3.5 | 7.8 | 0.00 | 0.04 | 0.04 | 71 | 1013.4 |
| 20260507195136 | 77 | 46 | 0.9 | 9.6 | 0.00 | 0.04 | 0.04 | 70 | 1013.5 |
| 20260507195032 | 77 | 47 | 2.6 | 9.6 | 0.00 | 0.04 | 0.04 | 70 | 1013.5 |
| 20260507194918 | 78 | 45 | 3.5 | 9.6 | 0.00 | 0.04 | 0.04 | 69 | 1013.5 |
| 20260507194831 | 78 | 344 | 3.5 | 9.6 | 0.00 | 0.04 | 0.04 | 69 | 1013.5 |
| 20260507194723 | 78 | 5 | 2.6 | 8.7 | 0.00 | 0.04 | 0.04 | 69 | 1013.5 |
| 20260507194707 | 78 | 5 | 2.6 | 8.7 | 0.00 | 0.04 | 0.04 | 71 | 1013.5 |
| 20260507194522 | 78 | 351 | 3.5 | 8.7 | 0.00 | 0.04 | 0.04 | 70 | 1013.5 |
| 20260507194427 | 78 | 351 | 3.5 | 8.7 | 0.00 | 0.04 | 0.04 | 70 | 1013.4 |
| 20260507194402 | 78 | 10 | 3.5 | 8.7 | 0.00 | 0.04 | 0.04 | 70 | 1013.4 |
| 20260507194218 | 78 | 5 | 4.3 | 8.7 | 0.00 | 0.04 | 0.04 | 70 | 1013.4 |
| 20260507194154 | 78 | 9 | 4.3 | 8.7 | 0.00 | 0.04 | 0.04 | 70 | 1013.4 |
| 20260507194050 | 78 | 29 | 3.5 | 8.7 | 0.00 | 0.04 | 0.04 | 69 | 1013.4 |
| 20260507193935 | 78 | 25 | 3.5 | 8.7 | 0.00 | 0.04 | 0.04 | 69 | 1013.4 |
| 20260507193822 | 78 | 360 | 4.3 | 8.7 | 0.00 | 0.04 | 0.04 | 70 | 1013.4 |
| 20260507193718 | 78 | 28 | 3.5 | 7.8 | 0.00 | 0.04 | 0.04 | 69 | 1013.4 |
| 20260507193651 | 78 | 17 | 3.5 | 7.8 | 0.00 | 0.04 | 0.04 | 71 | 1013.4 |
| 20260507193536 | 78 | 36 | 3.5 | 6.1 | 0.00 | 0.04 | 0.04 | 71 | 1013.4 |
| 20260507193421 | 77 | 49 | 2.6 | 5.2 | 0.00 | 0.04 | 0.04 | 70 | 1013.4 |
| 20260507193356 | 77 | 355 | 2.6 | 5.2 | 0.00 | 0.04 | 0.04 | 70 | 1013.4 |
| 20260507193241 | 77 | 20 | 2.6 | 5.2 | 0.00 | 0.04 | 0.04 | 70 | 1013.4 |
| 20260507193142 | 77 | 347 | 3.5 | 5.2 | 0.00 | 0.04 | 0.04 | 70 | 1013.4 |
| 20260507193018 | 77 | 360 | 3.5 | 5.2 | 0.00 | 0.04 | 0.04 | 71 | 1013.4 |
| 20260507192929 | 77 | 5 | 2.6 | 5.2 | 0.00 | 0.04 | 0.04 | 70 | 1013.4 |
| 20260507192837 | 77 | 345 | 2.6 | 5.2 | 0.00 | 0.04 | 0.04 | 70 | 1013.4 |
| 20260507192723 | 77 | 24 | 2.6 | 5.2 | 0.00 | 0.04 | 0.04 | 71 | 1013.5 |
| 20260507192707 | 77 | 30 | 1.7 | 5.2 | 0.00 | 0.04 | 0.04 | 71 | 1013.5 |
| 20260507192521 | 77 | 338 | 1.7 | 5.2 | 0.00 | 0.04 | 0.04 | 71 | 1013.5 |
| 20260507192435 | 77 | 26 | 1.7 | 5.2 | 0.00 | 0.04 | 0.04 | 70 | 1013.5 |
| 20260507192326 | 77 | 26 | 2.6 | 5.2 | 0.00 | 0.04 | 0.04 | 71 | 1013.5 |
| 20260507192243 | 77 | 24 | 2.6 | 5.2 | 0.00 | 0.04 | 0.04 | 71 | 1013.6 |
| 20260507192133 | 77 | 13 | 2.6 | 5.2 | 0.00 | 0.04 | 0.04 | 70 | 1013.7 |
| 20260507192033 | 77 | 30 | 2.6 | 5.2 | 0.00 | 0.04 | 0.04 | 70 | 1013.7 |
| 20260507191939 | 77 | 28 | 1.7 | 5.2 | 0.00 | 0.04 | 0.04 | 70 | 1013.7 |
| 20260507191825 | 77 | 344 | 0.9 | 5.2 | 0.00 | 0.04 | 0.04 | 70 | 1013.7 |
| 20260507191725 | 77 | 343 | 0.0 | 5.2 | 0.00 | 0.04 | 0.04 | 70 | 1013.8 |
| 20260507191637 | 77 | 343 | 0.9 | 5.2 | 0.00 | 0.04 | 0.04 | 70 | 1013.8 |
| 20260507191540 | 77 | 344 | 2.6 | 5.2 | 0.00 | 0.04 | 0.04 | 70 | 1013.9 |
| 20260507191446 | 77 | 342 | 3.5 | 5.2 | 0.00 | 0.04 | 0.04 | 70 | 1013.9 |
| 20260507191357 | 77 | 333 | 2.6 | 5.2 | 0.00 | 0.04 | 0.04 | 70 | 1013.8 |
| 20260507191224 | 77 | 44 | 3.5 | 7.8 | 0.00 | 0.04 | 0.04 | 70 | 1013.8 |
| 20260507191140 | 77 | 44 | 2.6 | 7.8 | 0.00 | 0.04 | 0.04 | 70 | 1013.8 |
| 20260507191019 | 77 | 34 | 1.7 | 7.8 | 0.00 | 0.04 | 0.04 | 70 | 1013.8 |
| 20260507190934 | 77 | 34 | 1.7 | 7.8 | 0.00 | 0.04 | 0.04 | 70 | 1013.9 |
| 20260507190821 | 77 | 32 | 2.6 | 7.8 | 0.00 | 0.04 | 0.04 | 70 | 1013.9 |
| 20260507190739 | 77 | 5 | 0.9 | 7.8 | 0.00 | 0.04 | 0.04 | 70 | 1013.9 |
| 20260507190631 | 77 | 11 | 0.9 | 7.8 | 0.00 | 0.04 | 0.04 | 70 | 1013.9 |
| 20260507190529 | 77 | 17 | 1.7 | 7.8 | 0.00 | 0.04 | 0.04 | 71 | 1013.9 |
| 20260507190421 | 77 | 17 | 2.6 | 7.8 | 0.00 | 0.04 | 0.04 | 70 | 1013.9 |
| 20260507190329 | 77 | 341 | 2.6 | 5.2 | 0.00 | 0.04 | 0.04 | 70 | 1013.9 |
| 20260507190225 | 77 | 5 | 2.6 | 5.2 | 0.00 | 0.04 | 0.04 | 70 | 1013.9 |
| 20260507190139 | 77 | 5 | 1.7 | 5.2 | 0.00 | 0.04 | 0.04 | 71 | 1013.9 |
| 20260507190033 | 77 | 355 | 0.9 | 5.2 | 0.00 | 0.04 | 0.04 | 71 | 1013.9 |
| 20260507185922 | 77 | 355 | 1.7 | 5.2 | 0.00 | 0.04 | 0.04 | 70 | 1013.9 |
| 20260507185836 | 77 | 355 | 1.7 | 5.2 | 0.00 | 0.04 | 0.04 | 70 | 1014.0 |
| 20260507185721 | 77 | 355 | 2.6 | 5.2 | 0.00 | 0.04 | 0.04 | 69 | 1014.0 |
| 20260507185637 | 77 | 355 | 2.6 | 5.2 | 0.00 | 0.04 | 0.04 | 70 | 1014.0 |
| 20260507185540 | 77 | 11 | 1.7 | 5.2 | 0.00 | 0.04 | 0.04 | 69 | 1014.0 |
| 20260507185430 | 77 | 5 | 1.7 | 5.2 | 0.00 | 0.04 | 0.04 | 70 | 1013.9 |
| 20260507185337 | 77 | 5 | 2.6 | 6.1 | 0.00 | 0.04 | 0.04 | 70 | 1014.0 |
| 20260507185224 | 77 | 360 | 1.7 | 5.2 | 0.00 | 0.04 | 0.04 | 70 | 1013.9 |
| 20260507185148 | 77 | 360 | 1.7 | 5.2 | 0.00 | 0.04 | 0.04 | 70 | 1014.0 |
| 20260507185041 | 77 | 360 | 1.7 | 7.0 | 0.00 | 0.04 | 0.04 | 70 | 1014.0 |
| 20260507184932 | 77 | 5 | 1.7 | 7.0 | 0.00 | 0.04 | 0.04 | 70 | 1014.0 |
| 20260507184905 | 77 | 11 | 1.7 | 7.0 | 0.00 | 0.04 | 0.04 | 70 | 1014.0 |
| 20260507184724 | 77 | 15 | 2.6 | 7.0 | 0.00 | 0.04 | 0.04 | 72 | 1014.0 |
| 20260507184629 | 77 | 350 | 2.6 | 7.0 | 0.00 | 0.04 | 0.04 | 72 | 1014.0 |
| 20260507184532 | 77 | 346 | 2.6 | 7.0 | 0.00 | 0.04 | 0.04 | 70 | 1013.9 |
| 20260507184418 | 77 | 344 | 2.6 | 7.0 | 0.00 | 0.04 | 0.04 | 70 | 1014.0 |
| 20260507184324 | 77 | 351 | 2.6 | 7.0 | 0.00 | 0.04 | 0.04 | 71 | 1014.1 |
| 20260507184223 | 77 | 22 | 2.6 | 7.0 | 0.00 | 0.04 | 0.04 | 71 | 1014.0 |
| 20260507184137 | 77 | 22 | 3.5 | 7.8 | 0.00 | 0.04 | 0.04 | 71 | 1014.0 |
| 20260507184031 | 77 | 5 | 3.5 | 7.8 | 0.00 | 0.04 | 0.04 | 71 | 1014.0 |
| 20260507183917 | 76 | 346 | 2.6 | 7.8 | 0.00 | 0.04 | 0.04 | 71 | 1014.0 |
| 20260507183831 | 76 | 31 | 2.6 | 7.8 | 0.00 | 0.04 | 0.04 | 71 | 1014.0 |
| 20260507183739 | 76 | 39 | 1.7 | 7.8 | 0.00 | 0.04 | 0.04 | 71 | 1014.0 |
| 20260507183705 | 76 | 15 | 2.6 | 7.8 | 0.00 | 0.04 | 0.04 | 71 | 1013.9 |
| 20260507183520 | 76 | 343 | 2.6 | 7.8 | 0.00 | 0.04 | 0.04 | 72 | 1013.9 |
| 20260507183426 | 76 | 355 | 2.6 | 7.8 | 0.00 | 0.04 | 0.04 | 71 | 1013.9 |
| 20260507183339 | 76 | 348 | 1.7 | 7.8 | 0.00 | 0.04 | 0.04 | 71 | 1013.9 |
| 20260507183226 | 76 | 308 | 1.7 | 5.2 | 0.00 | 0.04 | 0.04 | 71 | 1013.9 |
| 20260507183142 | 76 | 5 | 1.7 | 5.2 | 0.00 | 0.04 | 0.04 | 71 | 1013.9 |
| 20260507183048 | 76 | 360 | 2.6 | 5.2 | 0.00 | 0.04 | 0.04 | 71 | 1013.9 |
| 20260507182953 | 76 | 360 | 2.6 | 7.0 | 0.00 | 0.04 | 0.04 | 71 | 1013.9 |
| 20260507182818 | 77 | 360 | 3.5 | 7.0 | 0.00 | 0.04 | 0.04 | 70 | 1013.9 |
| 20260507182720 | 77 | 57 | 2.6 | 7.0 | 0.00 | 0.04 | 0.04 | 71 | 1013.9 |
| 20260507182654 | 77 | 344 | 2.6 | 7.0 | 0.00 | 0.04 | 0.04 | 71 | 1013.9 |
| 20260507182530 | 77 | 11 | 2.6 | 7.0 | 0.00 | 0.04 | 0.04 | 71 | 1013.9 |
| 20260507182419 | 77 | 24 | 0.9 | 7.0 | 0.00 | 0.04 | 0.04 | 71 | 1013.9 |
| 20260507182328 | 77 | 355 | 0.0 | 7.0 | 0.00 | 0.04 | 0.04 | 71 | 1013.9 |
| 20260507182244 | 77 | 355 | 0.9 | 7.0 | 0.00 | 0.04 | 0.04 | 71 | 1013.9 |
| 20260507182155 | 77 | 355 | 1.7 | 7.0 | 0.00 | 0.04 | 0.04 | 71 | 1014.0 |
| 20260507182036 | 77 | 347 | 1.7 | 7.0 | 0.00 | 0.04 | 0.04 | 70 | 1014.0 |
| 20260507181923 | 77 | 21 | 0.9 | 7.0 | 0.00 | 0.04 | 0.04 | 71 | 1014.1 |
| 20260507181834 | 77 | 36 | 0.9 | 7.0 | 0.00 | 0.04 | 0.04 | 71 | 1014.1 |
| 20260507181720 | 77 | 40 | 1.7 | 7.0 | 0.00 | 0.04 | 0.04 | 71 | 1014.1 |
| 20260507181644 | 77 | 40 | 1.7 | 7.0 | 0.00 | 0.04 | 0.04 | 70 | 1014.1 |
| 20260507181519 | 77 | 30 | 1.7 | 7.0 | 0.00 | 0.04 | 0.04 | 71 | 1014.1 |
| 20260507181424 | 77 | 17 | 2.6 | 7.0 | 0.00 | 0.04 | 0.04 | 71 | 1014.1 |
| 20260507181343 | 77 | 32 | 2.6 | 7.0 | 0.00 | 0.04 | 0.04 | 71 | 1014.1 |
| 20260507181229 | 77 | 17 | 2.6 | 7.0 | 0.00 | 0.04 | 0.04 | 71 | 1014.1 |
| 20260507181146 | 76 | 360 | 1.7 | 7.0 | 0.00 | 0.04 | 0.04 | 71 | 1014.0 |
| 20260507181022 | 77 | 355 | 0.9 | 7.0 | 0.00 | 0.04 | 0.04 | 71 | 1014.0 |
| 20260507180934 | 77 | 351 | 0.9 | 7.0 | 0.00 | 0.04 | 0.04 | 70 | 1014.0 |
| 20260507180820 | 77 | 22 | 2.6 | 7.0 | 0.00 | 0.04 | 0.04 | 70 | 1014.0 |
| 20260507180721 | 77 | 22 | 2.6 | 7.0 | 0.00 | 0.04 | 0.04 | 71 | 1014.0 |
| 20260507180633 | 77 | 24 | 1.7 | 7.0 | 0.00 | 0.04 | 0.04 | 71 | 1014.0 |
| 20260507180526 | 77 | 5 | 2.6 | 7.0 | 0.00 | 0.04 | 0.04 | 71 | 1013.9 |
| 20260507180440 | 77 | 5 | 3.5 | 7.0 | 0.00 | 0.04 | 0.04 | 71 | 1014.0 |
| 20260507180326 | 76 | 348 | 1.7 | 5.2 | 0.00 | 0.04 | 0.04 | 72 | 1013.9 |
| 20260507180227 | 76 | 13 | 0.9 | 5.2 | 0.00 | 0.04 | 0.04 | 72 | 1014.0 |
| 20260507180140 | 76 | 38 | 0.9 | 4.3 | 0.00 | 0.04 | 0.04 | 71 | 1014.0 |
| 20260507180034 | 76 | 38 | 0.9 | 4.3 | 0.00 | 0.04 | 0.04 | 71 | 1014.0 |
| 20260507175937 | 76 | 31 | 0.9 | 4.3 | 0.00 | 0.04 | 0.04 | 72 | 1014.0 |
| 20260507175828 | 76 | 30 | 0.9 | 4.3 | 0.00 | 0.04 | 0.04 | 72 | 1014.0 |
| 20260507175724 | 76 | 16 | 0.9 | 5.2 | 0.00 | 0.04 | 0.04 | 72 | 1014.0 |
| 20260507175640 | 76 | 14 | 0.9 | 5.2 | 0.00 | 0.04 | 0.04 | 72 | 1014.1 |
| 20260507175555 | 76 | 345 | 1.7 | 5.2 | 0.00 | 0.04 | 0.04 | 71 | 1014.1 |
| 20260507175420 | 76 | 342 | 1.7 | 5.2 | 0.00 | 0.04 | 0.04 | 71 | 1014.2 |
| 20260507175334 | 76 | 360 | 1.7 | 5.2 | 0.00 | 0.04 | 0.04 | 72 | 1014.3 |
| 20260507175242 | 76 | 25 | 1.7 | 5.2 | 0.00 | 0.04 | 0.04 | 72 | 1014.3 |
| 20260507175143 | 76 | 25 | 2.6 | 5.2 | 0.00 | 0.04 | 0.04 | 72 | 1014.3 |
| 20260507175023 | 75 | 9 | 1.7 | 5.2 | 0.00 | 0.04 | 0.04 | 72 | 1014.2 |
| 20260507174930 | 75 | 350 | 1.7 | 5.2 | 0.00 | 0.04 | 0.04 | 72 | 1014.3 |
| 20260507174845 | 75 | 342 | 0.9 | 5.2 | 0.00 | 0.04 | 0.04 | 73 | 1014.3 |
| 20260507174731 | 75 | 11 | 1.7 | 7.0 | 0.00 | 0.04 | 0.04 | 72 | 1014.3 |
| 20260507174648 | 75 | 11 | 1.7 | 7.0 | 0.00 | 0.04 | 0.04 | 72 | 1014.3 |
| 20260507174525 | 75 | 32 | 0.9 | 7.8 | 0.00 | 0.04 | 0.04 | 73 | 1014.2 |
| 20260507174439 | 75 | 33 | 0.9 | 7.8 | 0.00 | 0.04 | 0.04 | 72 | 1014.2 |
| 20260507174326 | 75 | 22 | 1.7 | 7.8 | 0.00 | 0.04 | 0.04 | 72 | 1014.2 |
| 20260507174221 | 75 | 35 | 2.6 | 7.8 | 0.00 | 0.04 | 0.04 | 72 | 1014.2 |
| 20260507174154 | 75 | 32 | 1.7 | 7.8 | 0.00 | 0.04 | 0.04 | 72 | 1014.2 |
| 20260507174028 | 75 | 27 | 1.7 | 7.8 | 0.00 | 0.04 | 0.04 | 72 | 1014.1 |
| 20260507173920 | 75 | 30 | 1.7 | 7.8 | 0.00 | 0.04 | 0.04 | 71 | 1014.2 |
| 20260507173826 | 75 | 30 | 2.6 | 7.8 | 0.00 | 0.04 | 0.04 | 72 | 1014.1 |
| 20260507173724 | 75 | 38 | 2.6 | 7.8 | 0.00 | 0.04 | 0.04 | 72 | 1014.2 |
| 20260507173635 | 75 | 30 | 2.6 | 7.8 | 0.00 | 0.04 | 0.04 | 73 | 1014.2 |
| 20260507173532 | 75 | 24 | 1.7 | 5.2 | 0.00 | 0.04 | 0.04 | 73 | 1014.2 |
| 20260507173423 | 75 | 22 | 0.9 | 7.0 | 0.00 | 0.04 | 0.04 | 73 | 1014.2 |
| 20260507173337 | 75 | 21 | 0.9 | 7.0 | 0.00 | 0.04 | 0.04 | 72 | 1014.2 |
| 20260507173243 | 75 | 21 | 0.9 | 7.0 | 0.00 | 0.04 | 0.04 | 72 | 1014.2 |
| 20260507173206 | 75 | 5 | 0.9 | 7.0 | 0.00 | 0.04 | 0.04 | 72 | 1014.3 |
| 20260507173020 | 75 | 5 | 1.7 | 7.0 | 0.00 | 0.04 | 0.04 | 73 | 1014.3 |
| 20260507172928 | 75 | 5 | 1.7 | 7.0 | 0.00 | 0.04 | 0.04 | 73 | 1014.4 |
| 20260507172819 | 75 | 355 | 1.7 | 7.0 | 0.00 | 0.04 | 0.04 | 73 | 1014.4 |
| 20260507172722 | 75 | 5 | 2.6 | 7.0 | 0.00 | 0.04 | 0.04 | 73 | 1014.4 |
| 20260507172646 | 75 | 345 | 2.6 | 7.0 | 0.00 | 0.04 | 0.04 | 74 | 1014.4 |
| 20260507172529 | 74 | 22 | 1.7 | 5.2 | 0.00 | 0.04 | 0.04 | 73 | 1014.4 |
| 20260507172436 | 74 | 19 | 1.7 | 5.2 | 0.00 | 0.04 | 0.04 | 72 | 1014.4 |
| 20260507172321 | 75 | 19 | 1.7 | 5.2 | 0.00 | 0.04 | 0.04 | 73 | 1014.5 |
| 20260507172248 | 75 | 32 | 1.7 | 5.2 | 0.00 | 0.04 | 0.04 | 73 | 1014.4 |
| 20260507172159 | 75 | 30 | 2.6 | 5.2 | 0.00 | 0.04 | 0.04 | 72 | 1014.5 |
| 20260507172052 | 75 | 52 | 1.7 | 5.2 | 0.00 | 0.04 | 0.04 | 72 | 1014.4 |
| 20260507171918 | 75 | 25 | 0.9 | 5.2 | 0.00 | 0.04 | 0.04 | 73 | 1014.5 |
| 20260507171852 | 75 | 24 | 0.9 | 5.2 | 0.00 | 0.04 | 0.04 | 76 | 1014.5 |
| 20260507171727 | 74 | 24 | 0.9 | 5.2 | 0.00 | 0.04 | 0.04 | 75 | 1014.5 |
| 20260507171639 | 74 | 25 | 0.9 | 5.2 | 0.00 | 0.04 | 0.04 | 74 | 1014.5 |
| 20260507171520 | 74 | 25 | 1.7 | 5.2 | 0.00 | 0.04 | 0.04 | 75 | 1014.5 |
| 20260507171426 | 74 | 25 | 1.7 | 5.2 | 0.00 | 0.04 | 0.04 | 75 | 1014.5 |
| 20260507171339 | 74 | 5 | 0.9 | 5.2 | 0.00 | 0.04 | 0.04 | 75 | 1014.5 |
| 20260507171224 | 74 | 13 | 0.9 | 5.2 | 0.00 | 0.04 | 0.04 | 77 | 1014.5 |
| 20260507171146 | 73 | 360 | 0.9 | 5.2 | 0.00 | 0.04 | 0.04 | 76 | 1014.5 |
| 20260507171026 | 73 | 355 | 1.7 | 6.1 | 0.00 | 0.04 | 0.04 | 75 | 1014.5 |
| 20260507170934 | 73 | 49 | 0.9 | 4.3 | 0.00 | 0.04 | 0.04 | 74 | 1014.5 |
| 20260507170821 | 73 | 49 | 2.6 | 4.3 | 0.00 | 0.04 | 0.04 | 74 | 1014.5 |
| 20260507170718 | 73 | 355 | 1.7 | 4.3 | 0.00 | 0.04 | 0.04 | 75 | 1014.5 |
| 20260507170630 | 73 | 346 | 1.7 | 4.3 | 0.00 | 0.04 | 0.04 | 75 | 1014.5 |
| 20260507170553 | 73 | 24 | 0.9 | 3.5 | 0.00 | 0.04 | 0.04 | 76 | 1014.5 |
| 20260507170420 | 73 | 38 | 0.0 | 3.5 | 0.00 | 0.04 | 0.04 | 76 | 1014.5 |
| 20260507170326 | 73 | 38 | 0.9 | 3.5 | 0.00 | 0.04 | 0.04 | 75 | 1014.4 |
| 20260507170224 | 73 | 38 | 1.7 | 3.5 | 0.00 | 0.04 | 0.04 | 76 | 1014.5 |
| 20260507170135 | 72 | 38 | 0.9 | 3.5 | 0.00 | 0.04 | 0.04 | 76 | 1014.4 |
| 20260507170030 | 72 | 37 | 1.7 | 3.5 | 0.00 | 0.04 | 0.04 | 76 | 1014.4 |
| 20260507165943 | 72 | 37 | 1.7 | 3.5 | 0.00 | 0.04 | 0.04 | 75 | 1014.4 |
| 20260507165833 | 72 | 33 | 0.9 | 5.2 | 0.00 | 0.04 | 0.04 | 76 | 1014.4 |
| 20260507165718 | 72 | 18 | 0.0 | 5.2 | 0.00 | 0.04 | 0.04 | 75 | 1014.4 |
| 20260507165640 | 72 | 27 | 0.0 | 5.2 | 0.00 | 0.04 | 0.04 | 75 | 1014.4 |
| 20260507165541 | 72 | 27 | 0.0 | 5.2 | 0.00 | 0.04 | 0.04 | 76 | 1014.4 |
| 20260507165428 | 72 | 27 | 0.9 | 5.2 | 0.00 | 0.04 | 0.04 | 76 | 1014.3 |
| 20260507165319 | 72 | 26 | 1.7 | 5.2 | 0.00 | 0.04 | 0.04 | 77 | 1014.3 |
| 20260507165217 | 72 | 26 | 0.9 | 5.2 | 0.00 | 0.04 | 0.04 | 78 | 1014.3 |
| 20260507165148 | 71 | 26 | 1.7 | 7.0 | 0.00 | 0.04 | 0.04 | 77 | 1014.3 |
| 20260507165024 | 71 | 26 | 2.6 | 7.0 | 0.00 | 0.04 | 0.04 | 77 | 1014.2 |
| 20260507164931 | 71 | 13 | 1.7 | 7.0 | 0.00 | 0.04 | 0.04 | 77 | 1014.2 |
| 20260507164818 | 71 | 18 | 0.9 | 7.0 | 0.00 | 0.04 | 0.04 | 76 | 1014.2 |
| 20260507164718 | 71 | 18 | 0.9 | 7.0 | 0.00 | 0.04 | 0.04 | 77 | 1014.2 |
| 20260507164631 | 71 | 18 | 1.7 | 9.6 | 0.00 | 0.04 | 0.04 | 77 | 1014.3 |
| 20260507164526 | 71 | 19 | 0.9 | 9.6 | 0.00 | 0.04 | 0.04 | 78 | 1014.4 |
| 20260507164440 | 71 | 19 | 2.6 | 9.6 | 0.00 | 0.04 | 0.04 | 78 | 1014.3 |
| 20260507164326 | 71 | 355 | 3.5 | 9.6 | 0.00 | 0.04 | 0.04 | 77 | 1014.3 |
| 20260507164237 | 71 | 5 | 2.6 | 9.6 | 0.00 | 0.04 | 0.04 | 78 | 1014.4 |
| 20260507164148 | 70 | 360 | 2.6 | 9.6 | 0.00 | 0.04 | 0.04 | 77 | 1014.4 |
| 20260507164022 | 70 | 5 | 2.6 | 9.6 | 0.00 | 0.04 | 0.04 | 78 | 1014.5 |
| 20260507163937 | 70 | 355 | 2.6 | 9.6 | 0.00 | 0.04 | 0.04 | 78 | 1014.5 |
| 20260507163824 | 70 | 26 | 3.5 | 9.6 | 0.00 | 0.04 | 0.04 | 78 | 1014.5 |
| 20260507163721 | 70 | 360 | 2.6 | 9.6 | 0.00 | 0.04 | 0.04 | 79 | 1014.5 |
| 20260507163636 | 70 | 21 | 1.7 | 5.2 | 0.00 | 0.04 | 0.04 | 78 | 1014.5 |
| 20260507163532 | 70 | 51 | 1.7 | 5.2 | 0.00 | 0.04 | 0.04 | 77 | 1014.6 |
| 20260507163419 | 70 | 51 | 2.6 | 5.2 | 0.00 | 0.04 | 0.04 | 77 | 1014.6 |
| 20260507163324 | 70 | 51 | 2.6 | 5.2 | 0.00 | 0.04 | 0.04 | 77 | 1014.6 |
| 20260507163249 | 70 | 40 | 2.6 | 5.2 | 0.00 | 0.04 | 0.04 | 77 | 1014.7 |
| 20260507163140 | 70 | 40 | 2.6 | 5.2 | 0.00 | 0.04 | 0.04 | 78 | 1014.7 |
| 20260507163039 | 70 | 9 | 2.6 | 5.2 | 0.00 | 0.04 | 0.04 | 78 | 1014.7 |
| 20260507162924 | 70 | 13 | 2.6 | 5.2 | 0.00 | 0.04 | 0.04 | 78 | 1014.8 |
| 20260507162837 | 70 | 12 | 2.6 | 5.2 | 0.00 | 0.04 | 0.04 | 79 | 1014.8 |
| 20260507162724 | 70 | 29 | 2.6 | 5.2 | 0.00 | 0.04 | 0.04 | 79 | 1014.8 |
| 20260507162640 | 69 | 31 | 1.7 | 5.2 | 0.00 | 0.04 | 0.04 | 79 | 1014.7 |
| 20260507162519 | 69 | 49 | 1.7 | 7.0 | 0.00 | 0.04 | 0.04 | 79 | 1014.8 |
| 20260507162433 | 69 | 55 | 1.7 | 9.6 | 0.00 | 0.04 | 0.04 | 78 | 1014.8 |
| 20260507162319 | 70 | 5 | 2.6 | 9.6 | 0.00 | 0.04 | 0.04 | 79 | 1014.8 |
| 20260507162218 | 69 | 355 | 1.7 | 9.6 | 0.00 | 0.04 | 0.04 | 79 | 1014.8 |
| 20260507162151 | 69 | 355 | 1.7 | 9.6 | 0.00 | 0.04 | 0.04 | 79 | 1014.8 |
| 20260507162027 | 69 | 18 | 0.9 | 9.6 | 0.00 | 0.04 | 0.04 | 81 | 1014.8 |
| 20260507161919 | 69 | 18 | 2.6 | 9.6 | 0.00 | 0.04 | 0.04 | 80 | 1014.8 |
| 20260507161827 | 69 | 26 | 3.5 | 9.6 | 0.00 | 0.04 | 0.04 | 79 | 1014.7 |
| 20260507161722 | 69 | 11 | 4.3 | 9.6 | 0.00 | 0.04 | 0.04 | 79 | 1014.7 |
| 20260507161655 | 69 | 342 | 4.3 | 9.6 | 0.00 | 0.04 | 0.04 | 79 | 1014.7 |
| 20260507161539 | 69 | 351 | 3.5 | 9.6 | 0.00 | 0.04 | 0.04 | 79 | 1014.7 |
| 20260507161445 | 69 | 342 | 2.6 | 7.0 | 0.00 | 0.04 | 0.04 | 79 | 1014.7 |
| 20260507161341 | 69 | 342 | 3.5 | 7.0 | 0.00 | 0.04 | 0.04 | 79 | 1014.7 |
| 20260507161218 | 69 | 5 | 3.5 | 7.0 | 0.00 | 0.04 | 0.04 | 79 | 1014.8 |
| 20260507161150 | 69 | 355 | 2.6 | 7.0 | 0.00 | 0.04 | 0.04 | 79 | 1014.8 |
| 20260507161026 | 69 | 9 | 1.7 | 5.2 | 0.00 | 0.04 | 0.04 | 79 | 1014.8 |
| 20260507160933 | 69 | 348 | 1.7 | 5.2 | 0.00 | 0.04 | 0.04 | 80 | 1014.8 |
| 20260507160824 | 69 | 355 | 2.6 | 5.2 | 0.00 | 0.04 | 0.04 | 79 | 1014.9 |
| 20260507160718 | 69 | 360 | 2.6 | 8.7 | 0.00 | 0.04 | 0.04 | 79 | 1014.9 |
| 20260507160629 | 69 | 332 | 2.6 | 8.7 | 0.00 | 0.04 | 0.04 | 79 | 1014.9 |
| 20260507160530 | 69 | 5 | 1.7 | 8.7 | 0.00 | 0.04 | 0.04 | 80 | 1014.8 |
| 20260507160436 | 69 | 9 | 0.9 | 8.7 | 0.00 | 0.04 | 0.04 | 80 | 1014.8 |
| 20260507160322 | 69 | 344 | 1.7 | 8.7 | 0.00 | 0.04 | 0.04 | 80 | 1014.8 |
| 20260507160223 | 69 | 342 | 2.6 | 8.7 | 0.00 | 0.04 | 0.04 | 80 | 1014.8 |
| 20260507160136 | 69 | 338 | 2.6 | 8.7 | 0.00 | 0.04 | 0.04 | 80 | 1014.8 |
| 20260507160029 | 69 | 21 | 3.5 | 8.7 | 0.00 | 0.04 | 0.04 | 80 | 1014.9 |
| 20260507155943 | 69 | 19 | 3.5 | 8.7 | 0.00 | 0.04 | 0.04 | 80 | 1014.9 |
| 20260507155851 | 68 | 344 | 1.7 | 6.1 | 0.00 | 0.04 | 0.04 | 80 | 1014.8 |
| 20260507155727 | 68 | 36 | 1.7 | 5.2 | 0.00 | 0.04 | 0.04 | 80 | 1014.9 |
| 20260507155643 | 68 | 36 | 1.7 | 5.2 | 0.00 | 0.04 | 0.04 | 80 | 1014.9 |
| 20260507155519 | 68 | 36 | 1.7 | 5.2 | 0.00 | 0.04 | 0.04 | 81 | 1015.0 |
| 20260507155423 | 68 | 9 | 1.7 | 5.2 | 0.00 | 0.04 | 0.04 | 81 | 1015.0 |
| 20260507155337 | 68 | 5 | 1.7 | 5.2 | 0.00 | 0.04 | 0.04 | 81 | 1015.1 |
| 20260507155224 | 68 | 11 | 0.9 | 6.1 | 0.00 | 0.04 | 0.04 | 81 | 1015.0 |
| 20260507155147 | 68 | 46 | 0.9 | 5.2 | 0.00 | 0.04 | 0.04 | 81 | 1015.1 |
| 20260507155026 | 68 | 46 | 2.6 | 7.0 | 0.00 | 0.04 | 0.04 | 81 | 1015.1 |
| 20260507154933 | 68 | 12 | 2.6 | 7.0 | 0.00 | 0.04 | 0.04 | 81 | 1015.1 |
| 20260507154820 | 68 | 355 | 0.9 | 7.8 | 0.00 | 0.04 | 0.04 | 81 | 1015.2 |
| 20260507154744 | 68 | 349 | 0.9 | 7.8 | 0.00 | 0.04 | 0.04 | 81 | 1015.2 |
| 20260507154628 | 68 | 351 | 1.7 | 7.8 | 0.00 | 0.04 | 0.04 | 81 | 1015.2 |
| 20260507154535 | 68 | 351 | 2.6 | 7.8 | 0.00 | 0.04 | 0.04 | 81 | 1015.2 |
| 20260507154421 | 68 | 355 | 2.6 | 7.8 | 0.00 | 0.04 | 0.04 | 81 | 1015.3 |
| 20260507154328 | 68 | 9 | 2.6 | 7.8 | 0.00 | 0.04 | 0.04 | 81 | 1015.3 |
| 20260507154218 | 68 | 5 | 3.5 | 7.8 | 0.00 | 0.04 | 0.04 | 81 | 1015.3 |
| 20260507154135 | 68 | 5 | 4.3 | 7.8 | 0.00 | 0.04 | 0.04 | 81 | 1015.2 |
| 20260507154056 | 68 | 360 | 2.6 | 7.8 | 0.00 | 0.04 | 0.04 | 81 | 1015.2 |
| 20260507153723 | 68 | 47 | 2.6 | 7.0 | 0.00 | 0.04 | 0.04 | 82 | 1015.0 |
| 20260507153638 | 68 | 48 | 1.7 | 7.0 | 0.00 | 0.04 | 0.04 | 82 | 1015.0 |
| 20260507153534 | 67 | 351 | 0.9 | 7.0 | 0.00 | 0.04 | 0.04 | 82 | 1015.0 |
| 20260507153421 | 67 | 42 | 1.7 | 7.0 | 0.00 | 0.04 | 0.04 | 82 | 1014.9 |
| 20260507153335 | 67 | 338 | 2.6 | 7.0 | 0.00 | 0.04 | 0.04 | 82 | 1015.0 |
| 20260507153222 | 67 | 345 | 3.5 | 7.0 | 0.00 | 0.04 | 0.04 | 82 | 1015.0 |
| 20260507153149 | 67 | 344 | 3.5 | 7.0 | 0.00 | 0.04 | 0.04 | 82 | 1015.0 |
| 20260507153025 | 67 | 25 | 2.6 | 7.0 | 0.00 | 0.04 | 0.04 | 82 | 1015.0 |
| 20260507152929 | 67 | 344 | 2.6 | 7.0 | 0.00 | 0.04 | 0.04 | 83 | 1015.0 |
| 20260507152841 | 67 | 340 | 2.6 | 7.0 | 0.00 | 0.04 | 0.04 | 83 | 1015.0 |
| 20260507152730 | 67 | 355 | 1.7 | 5.2 | 0.00 | 0.04 | 0.04 | 83 | 1015.0 |
| 20260507152645 | 67 | 348 | 2.6 | 5.2 | 0.00 | 0.04 | 0.04 | 83 | 1015.0 |
| 20260507152524 | 67 | 348 | 3.5 | 7.0 | 0.00 | 0.04 | 0.04 | 84 | 1014.9 |
| 20260507152437 | 67 | 348 | 2.6 | 7.0 | 0.00 | 0.04 | 0.04 | 84 | 1015.0 |
| 20260507152324 | 67 | 13 | 1.7 | 7.0 | 0.00 | 0.04 | 0.04 | 84 | 1015.0 |
| 20260507152240 | 67 | 46 | 2.6 | 7.0 | 0.00 | 0.04 | 0.04 | 85 | 1015.0 |
| 20260507152131 | 67 | 355 | 2.6 | 7.0 | 0.00 | 0.04 | 0.04 | 85 | 1015.0 |
| 20260507152028 | 67 | 355 | 2.6 | 7.0 | 0.00 | 0.04 | 0.04 | 85 | 1014.9 |
| 20260507151919 | 66 | 360 | 2.6 | 7.0 | 0.00 | 0.04 | 0.04 | 85 | 1014.9 |
| 20260507151833 | 66 | 11 | 2.6 | 7.0 | 0.00 | 0.04 | 0.04 | 85 | 1014.9 |
| 20260507151719 | 66 | 344 | 2.6 | 7.0 | 0.00 | 0.04 | 0.04 | 86 | 1015.0 |
| 20260507151635 | 66 | 346 | 1.7 | 7.0 | 0.00 | 0.04 | 0.04 | 86 | 1015.0 |
| 20260507151538 | 66 | 355 | 0.0 | 7.0 | 0.00 | 0.04 | 0.04 | 86 | 1014.9 |
| 20260507151428 | 66 | 350 | 0.0 | 7.0 | 0.00 | 0.04 | 0.04 | 86 | 1014.9 |
| 20260507151321 | 66 | 350 | 1.7 | 7.0 | 0.00 | 0.04 | 0.04 | 86 | 1014.8 |
| 20260507151217 | 66 | 350 | 2.6 | 7.0 | 0.00 | 0.04 | 0.04 | 86 | 1014.9 |
| 20260507151148 | 66 | 350 | 3.5 | 7.0 | 0.00 | 0.04 | 0.04 | 86 | 1014.8 |
| 20260507151025 | 66 | 350 | 0.9 | 7.0 | 0.00 | 0.04 | 0.04 | 86 | 1014.7 |
| 20260507150931 | 66 | 355 | 0.9 | 4.3 | 0.00 | 0.04 | 0.04 | 86 | 1014.8 |
| 20260507150823 | 66 | 355 | 0.9 | 4.3 | 0.00 | 0.04 | 0.04 | 86 | 1014.8 |
| 20260507150721 | 66 | 355 | 1.7 | 4.3 | 0.00 | 0.04 | 0.04 | 86 | 1014.8 |
| 20260507150654 | 66 | 355 | 0.9 | 4.3 | 0.00 | 0.04 | 0.04 | 86 | 1014.8 |
| 20260507150528 | 66 | 348 | 0.0 | 4.3 | 0.00 | 0.04 | 0.04 | 86 | 1014.8 |
| 20260507150442 | 66 | 348 | 0.9 | 4.3 | 0.00 | 0.04 | 0.04 | 86 | 1014.8 |
| 20260507150329 | 66 | 348 | 0.9 | 4.3 | 0.00 | 0.04 | 0.04 | 86 | 1014.8 |
| 20260507150239 | 66 | 343 | 1.7 | 4.3 | 0.00 | 0.04 | 0.04 | 86 | 1014.7 |
| 20260507150202 | 66 | 343 | 2.6 | 4.3 | 0.00 | 0.04 | 0.04 | 86 | 1014.7 |
| 20260507150036 | 66 | 360 | 2.6 | 4.3 | 0.00 | 0.04 | 0.04 | 86 | 1014.7 |
| 20260507145922 | 66 | 17 | 1.7 | 4.3 | 0.00 | 0.04 | 0.04 | 86 | 1014.7 |
| 20260507145835 | 66 | 349 | 0.0 | 3.5 | 0.00 | 0.04 | 0.04 | 86 | 1014.7 |
| 20260507145717 | 66 | 346 | 0.0 | 3.5 | 0.00 | 0.04 | 0.04 | 86 | 1014.8 |
| 20260507145648 | 66 | 346 | 0.0 | 3.5 | 0.00 | 0.04 | 0.04 | 86 | 1014.7 |
| 20260507145543 | 66 | 346 | 0.0 | 3.5 | 0.00 | 0.04 | 0.04 | 86 | 1014.7 |
| 20260507145428 | 66 | 346 | 0.0 | 3.5 | 0.00 | 0.04 | 0.04 | 86 | 1014.6 |
| 20260507145341 | 66 | 346 | 0.9 | 3.5 | 0.00 | 0.04 | 0.04 | 86 | 1014.6 |
| 20260507145217 | 65 | 346 | 1.7 | 3.5 | 0.00 | 0.04 | 0.04 | 86 | 1014.6 |
| 20260507145151 | 65 | 346 | 1.7 | 3.5 | 0.00 | 0.04 | 0.04 | 87 | 1014.7 |
| 20260507145031 | 65 | 9 | 0.0 | 1.7 | 0.00 | 0.04 | 0.04 | 87 | 1014.7 |
| 20260507144918 | 65 | 9 | 0.0 | 0.9 | 0.00 | 0.04 | 0.04 | 87 | 1014.7 |
| 20260507144826 | 65 | 9 | 0.0 | 0.9 | 0.00 | 0.04 | 0.04 | 87 | 1014.7 |
| 20260507144721 | 65 | 9 | 0.0 | 0.9 | 0.00 | 0.04 | 0.04 | 87 | 1014.7 |
| 20260507144633 | 65 | 9 | 0.0 | 0.9 | 0.00 | 0.04 | 0.04 | 86 | 1014.7 |
| 20260507144531 | 65 | 9 | 0.0 | 1.7 | 0.00 | 0.04 | 0.04 | 87 | 1014.6 |
| 20260507144443 | 65 | 9 | 0.0 | 1.7 | 0.00 | 0.04 | 0.04 | 87 | 1014.5 |
| 20260507144329 | 65 | 9 | 0.0 | 1.7 | 0.00 | 0.04 | 0.04 | 87 | 1014.6 |
| 20260507144220 | 65 | 9 | 0.0 | 2.6 | 0.00 | 0.04 | 0.04 | 87 | 1014.6 |
| 20260507144144 | 65 | 9 | 0.0 | 3.5 | 0.00 | 0.04 | 0.04 | 87 | 1014.6 |
| 20260507144019 | 65 | 9 | 0.0 | 3.5 | 0.00 | 0.04 | 0.04 | 86 | 1014.7 |
| 20260507143926 | 65 | 9 | 0.0 | 4.3 | 0.00 | 0.04 | 0.04 | 86 | 1014.7 |
| 20260507143817 | 65 | 9 | 0.0 | 4.3 | 0.00 | 0.04 | 0.04 | 86 | 1014.6 |
| 20260507143725 | 65 | 9 | 0.0 | 4.3 | 0.00 | 0.04 | 0.04 | 86 | 1014.6 |
| 20260507143647 | 65 | 9 | 0.0 | 4.3 | 0.00 | 0.04 | 0.04 | 86 | 1014.5 |
| 20260507143522 | 65 | 9 | 0.9 | 4.3 | 0.00 | 0.04 | 0.04 | 86 | 1014.5 |
| 20260507143430 | 65 | 9 | 1.7 | 4.3 | 0.00 | 0.04 | 0.04 | 86 | 1014.6 |
| 20260507143319 | 65 | 9 | 1.7 | 4.3 | 0.00 | 0.04 | 0.04 | 86 | 1014.6 |
| 20260507143222 | 65 | 9 | 1.7 | 4.3 | 0.00 | 0.04 | 0.04 | 86 | 1014.6 |
| 20260507143128 | 65 | 41 | 0.9 | 4.3 | 0.00 | 0.04 | 0.04 | 86 | 1014.6 |
| 20260507143030 | 65 | 41 | 0.0 | 4.3 | 0.00 | 0.04 | 0.04 | 86 | 1014.6 |
| 20260507142917 | 65 | 355 | 0.9 | 5.2 | 0.00 | 0.04 | 0.04 | 86 | 1014.6 |
| 20260507142829 | 65 | 355 | 1.7 | 5.2 | 0.00 | 0.04 | 0.04 | 86 | 1014.6 |
| 20260507142725 | 65 | 350 | 0.9 | 5.2 | 0.00 | 0.04 | 0.04 | 86 | 1014.6 |
| 20260507142636 | 65 | 360 | 0.9 | 5.2 | 0.00 | 0.04 | 0.04 | 86 | 1014.6 |
| 20260507142558 | 65 | 360 | 0.9 | 5.2 | 0.00 | 0.04 | 0.04 | 86 | 1014.6 |
| 20260507142424 | 65 | 360 | 0.9 | 5.2 | 0.00 | 0.04 | 0.04 | 86 | 1014.5 |
| 20260507142332 | 65 | 360 | 1.7 | 5.2 | 0.00 | 0.04 | 0.04 | 86 | 1014.5 |
| 20260507142220 | 65 | 5 | 1.7 | 5.2 | 0.00 | 0.04 | 0.04 | 87 | 1014.5 |
| 20260507142144 | 65 | 9 | 1.7 | 5.2 | 0.00 | 0.04 | 0.04 | 87 | 1014.5 |
| 20260507142020 | 65 | 5 | 0.0 | 5.2 | 0.00 | 0.04 | 0.04 | 86 | 1014.6 |
| 20260507141926 | 65 | 5 | 0.0 | 5.2 | 0.00 | 0.04 | 0.04 | 86 | 1014.7 |
| 20260507141832 | 65 | 5 | 1.7 | 5.2 | 0.00 | 0.04 | 0.04 | 86 | 1014.7 |
| 20260507141723 | 65 | 5 | 2.6 | 5.2 | 0.00 | 0.04 | 0.04 | 86 | 1014.7 |
| 20260507141646 | 65 | 5 | 2.6 | 5.2 | 0.00 | 0.04 | 0.04 | 86 | 1014.7 |
| 20260507141523 | 65 | 360 | 1.7 | 5.2 | 0.00 | 0.04 | 0.04 | 86 | 1014.6 |
| 20260507141428 | 65 | 360 | 0.9 | 5.2 | 0.00 | 0.04 | 0.04 | 86 | 1014.7 |
| 20260507141341 | 65 | 360 | 1.7 | 5.2 | 0.00 | 0.04 | 0.04 | 86 | 1014.6 |
| 20260507141220 | 65 | 360 | 1.7 | 5.2 | 0.00 | 0.04 | 0.04 | 86 | 1014.6 |
| 20260507141153 | 65 | 360 | 1.7 | 5.2 | 0.00 | 0.04 | 0.04 | 86 | 1014.6 |
| 20260507141028 | 65 | 360 | 0.0 | 4.3 | 0.00 | 0.04 | 0.04 | 86 | 1014.6 |
| 20260507140935 | 65 | 360 | 0.0 | 4.3 | 0.00 | 0.04 | 0.04 | 86 | 1014.7 |
| 20260507140822 | 65 | 360 | 0.0 | 4.3 | 0.00 | 0.04 | 0.04 | 86 | 1014.7 |
| 20260507140720 | 65 | 360 | 0.9 | 4.3 | 0.00 | 0.04 | 0.04 | 86 | 1014.7 |
| 20260507140635 | 65 | 360 | 1.7 | 4.3 | 0.00 | 0.04 | 0.04 | 86 | 1014.6 |
| 20260507140529 | 65 | 360 | 1.7 | 4.3 | 0.00 | 0.04 | 0.04 | 86 | 1014.7 |
| 20260507140442 | 65 | 360 | 0.9 | 3.5 | 0.00 | 0.04 | 0.04 | 86 | 1014.7 |
| 20260507140327 | 65 | 360 | 0.9 | 3.5 | 0.00 | 0.04 | 0.04 | 86 | 1014.7 |
| 20260507140245 | 65 | 360 | 1.7 | 8.7 | 0.00 | 0.04 | 0.04 | 86 | 1014.8 |
| 20260507140155 | 65 | 360 | 1.7 | 8.7 | 0.00 | 0.04 | 0.04 | 86 | 1014.8 |
| 20260507140038 | 65 | 360 | 0.0 | 8.7 | 0.00 | 0.04 | 0.04 | 86 | 1014.8 |
| 20260507135927 | 65 | 360 | 0.0 | 8.7 | 0.00 | 0.04 | 0.04 | 86 | 1014.8 |
| 20260507135842 | 65 | 360 | 0.0 | 8.7 | 0.00 | 0.04 | 0.04 | 86 | 1014.7 |
| 20260507135719 | 65 | 360 | 0.0 | 8.7 | 0.00 | 0.04 | 0.04 | 86 | 1014.8 |
| 20260507135640 | 65 | 360 | 0.0 | 8.7 | 0.00 | 0.04 | 0.04 | 86 | 1014.8 |
| 20260507135543 | 65 | 360 | 2.6 | 8.7 | 0.00 | 0.04 | 0.04 | 86 | 1014.8 |
| 20260507135427 | 65 | 360 | 2.6 | 8.7 | 0.00 | 0.04 | 0.04 | 86 | 1014.8 |
| 20260507135317 | 65 | 360 | 2.6 | 7.8 | 0.00 | 0.04 | 0.04 | 86 | 1014.8 |
| 20260507135230 | 65 | 351 | 2.6 | 5.2 | 0.00 | 0.04 | 0.04 | 86 | 1014.8 |
| 20260507135213 | 65 | 351 | 2.6 | 5.2 | 0.00 | 0.04 | 0.04 | 86 | 1014.8 |
| 20260507135028 | 65 | 5 | 0.9 | 4.3 | 0.00 | 0.04 | 0.04 | 86 | 1014.8 |
| 20260507134935 | 65 | 5 | 0.0 | 4.3 | 0.00 | 0.04 | 0.04 | 86 | 1014.9 |
| 20260507134822 | 65 | 5 | 0.0 | 4.3 | 0.00 | 0.04 | 0.04 | 86 | 1014.9 |
| 20260507134724 | 65 | 5 | 0.9 | 4.3 | 0.00 | 0.04 | 0.04 | 86 | 1015.0 |
| 20260507134634 | 65 | 5 | 1.7 | 4.3 | 0.00 | 0.04 | 0.04 | 86 | 1015.0 |
| 20260507134528 | 65 | 5 | 0.9 | 4.3 | 0.00 | 0.04 | 0.04 | 86 | 1015.0 |
| 20260507134442 | 65 | 5 | 1.7 | 4.3 | 0.00 | 0.04 | 0.04 | 86 | 1014.9 |
| 20260507134400 | 65 | 5 | 1.7 | 4.3 | 0.00 | 0.04 | 0.04 | 86 | 1014.9 |
| 20260507134024 | 65 | 355 | 0.9 | 5.2 | 0.00 | 0.04 | 0.04 | 86 | 1014.9 |
| 20260507133922 | 65 | 355 | 1.7 | 5.2 | 0.00 | 0.04 | 0.04 | 86 | 1014.9 |
| 20260507133828 | 65 | 355 | 1.7 | 5.2 | 0.00 | 0.04 | 0.04 | 86 | 1014.8 |
| 20260507133723 | 65 | 355 | 1.7 | 5.2 | 0.00 | 0.04 | 0.04 | 86 | 1014.8 |
| 20260507133634 | 65 | 328 | 0.9 | 5.2 | 0.00 | 0.04 | 0.04 | 86 | 1014.8 |
| 20260507133531 | 65 | 327 | 1.7 | 5.2 | 0.00 | 0.04 | 0.04 | 86 | 1014.7 |
| 20260507133420 | 65 | 355 | 1.7 | 5.2 | 0.00 | 0.04 | 0.04 | 86 | 1014.7 |
| 20260507133353 | 65 | 346 | 1.7 | 5.2 | 0.00 | 0.04 | 0.04 | 86 | 1014.6 |
| 20260507133227 | 65 | 347 | 2.6 | 5.2 | 0.00 | 0.04 | 0.04 | 86 | 1014.6 |
| 20260507133140 | 65 | 346 | 2.6 | 7.8 | 0.00 | 0.04 | 0.04 | 86 | 1014.6 |
| 20260507133036 | 65 | 342 | 2.6 | 7.8 | 0.00 | 0.04 | 0.04 | 86 | 1014.6 |
| 20260507132921 | 65 | 345 | 0.9 | 7.8 | 0.00 | 0.04 | 0.04 | 86 | 1014.6 |
| 20260507132838 | 65 | 345 | 0.9 | 7.8 | 0.00 | 0.04 | 0.04 | 86 | 1014.5 |
| 20260507132724 | 65 | 342 | 0.9 | 7.8 | 0.00 | 0.04 | 0.04 | 86 | 1014.5 |
| 20260507132640 | 65 | 342 | 2.6 | 7.8 | 0.00 | 0.04 | 0.04 | 86 | 1014.5 |
| 20260507132542 | 65 | 41 | 2.6 | 7.8 | 0.00 | 0.04 | 0.04 | 86 | 1014.5 |
| 20260507132429 | 65 | 355 | 3.5 | 7.8 | 0.00 | 0.04 | 0.04 | 86 | 1014.5 |
| 20260507132319 | 65 | 350 | 3.5 | 7.8 | 0.00 | 0.04 | 0.04 | 86 | 1014.5 |
| 20260507132217 | 65 | 360 | 2.6 | 7.8 | 0.00 | 0.04 | 0.04 | 86 | 1014.4 |
| 20260507132149 | 65 | 11 | 2.6 | 7.8 | 0.00 | 0.04 | 0.04 | 86 | 1014.4 |
| 20260507132023 | 65 | 360 | 1.7 | 7.8 | 0.00 | 0.04 | 0.04 | 86 | 1014.4 |
| 20260507131931 | 65 | 340 | 0.9 | 7.8 | 0.00 | 0.04 | 0.04 | 86 | 1014.3 |
| 20260507131818 | 65 | 339 | 1.7 | 7.8 | 0.00 | 0.04 | 0.04 | 86 | 1014.3 |
| 20260507131720 | 65 | 339 | 2.6 | 7.8 | 0.00 | 0.04 | 0.04 | 86 | 1014.3 |
| 20260507131632 | 65 | 355 | 2.6 | 7.8 | 0.00 | 0.04 | 0.04 | 86 | 1014.3 |
| 20260507131526 | 65 | 355 | 2.6 | 7.8 | 0.00 | 0.04 | 0.04 | 86 | 1014.3 |
| 20260507131440 | 65 | 351 | 3.5 | 7.8 | 0.00 | 0.04 | 0.04 | 86 | 1014.3 |
| 20260507131347 | 65 | 350 | 4.3 | 7.8 | 0.00 | 0.04 | 0.04 | 86 | 1014.2 |
| 20260507131226 | 65 | 355 | 3.5 | 7.0 | 0.00 | 0.04 | 0.04 | 86 | 1014.2 |
| 20260507131137 | 65 | 355 | 1.7 | 7.0 | 0.00 | 0.04 | 0.04 | 86 | 1014.2 |
| 20260507131040 | 65 | 348 | 1.7 | 7.0 | 0.00 | 0.04 | 0.04 | 86 | 1014.2 |
| 20260507130919 | 65 | 347 | 1.7 | 7.0 | 0.00 | 0.04 | 0.04 | 86 | 1014.2 |
| 20260507130852 | 65 | 351 | 1.7 | 7.0 | 0.00 | 0.04 | 0.04 | 86 | 1014.2 |
| 20260507130726 | 65 | 355 | 1.7 | 7.0 | 0.00 | 0.04 | 0.04 | 86 | 1014.2 |
| 20260507130640 | 65 | 355 | 1.7 | 7.0 | 0.00 | 0.04 | 0.04 | 86 | 1014.1 |
| 20260507130546 | 65 | 355 | 2.6 | 7.0 | 0.00 | 0.04 | 0.04 | 86 | 1014.2 |
| 20260507130431 | 65 | 355 | 3.5 | 7.0 | 0.00 | 0.04 | 0.04 | 86 | 1014.2 |
| 20260507130317 | 65 | 360 | 2.6 | 7.0 | 0.00 | 0.04 | 0.04 | 86 | 1014.3 |
| 20260507130249 | 65 | 360 | 1.7 | 7.0 | 0.00 | 0.04 | 0.04 | 86 | 1014.2 |
| 20260507130146 | 65 | 360 | 1.7 | 7.0 | 0.00 | 0.04 | 0.04 | 86 | 1014.3 |
| 20260507130025 | 65 | 360 | 2.6 | 7.0 | 0.00 | 0.04 | 0.04 | 86 | 1014.4 |
| 20260507125938 | 65 | 5 | 2.6 | 7.0 | 0.00 | 0.04 | 0.04 | 86 | 1014.3 |
| 20260507125824 | 65 | 5 | 2.6 | 7.0 | 0.00 | 0.04 | 0.04 | 86 | 1014.4 |
| 20260507125741 | 65 | 9 | 2.6 | 5.2 | 0.00 | 0.04 | 0.04 | 86 | 1014.4 |
| 20260507125631 | 65 | 10 | 2.6 | 5.2 | 0.00 | 0.04 | 0.04 | 86 | 1014.4 |
| 20260507125526 | 65 | 360 | 0.9 | 5.2 | 0.00 | 0.04 | 0.04 | 86 | 1014.4 |
| 20260507125416 | 65 | 360 | 0.9 | 7.0 | 0.00 | 0.04 | 0.04 | 86 | 1014.4 |
| 20260507125329 | 65 | 360 | 2.6 | 7.0 | 0.00 | 0.04 | 0.04 | 86 | 1014.3 |
| 20260507125245 | 65 | 360 | 2.6 | 7.0 | 0.00 | 0.04 | 0.04 | 86 | 1014.3 |
| 20260507125137 | 65 | 360 | 2.6 | 7.0 | 0.00 | 0.04 | 0.04 | 86 | 1014.2 |
| 20260507125033 | 65 | 339 | 1.7 | 7.0 | 0.00 | 0.04 | 0.04 | 86 | 1014.3 |
| 20260507124927 | 65 | 14 | 1.7 | 7.0 | 0.00 | 0.04 | 0.04 | 86 | 1014.2 |
| 20260507124837 | 66 | 15 | 1.7 | 7.0 | 0.00 | 0.04 | 0.04 | 86 | 1014.2 |
| 20260507124751 | 66 | 15 | 2.6 | 7.0 | 0.00 | 0.04 | 0.04 | 86 | 1014.2 |
| 20260507124714 | 66 | 15 | 3.5 | 7.0 | 0.00 | 0.04 | 0.04 | 86 | 1014.2 |
| 20260507124528 | 66 | 360 | 1.7 | 7.0 | 0.00 | 0.04 | 0.04 | 86 | 1014.2 |
| 20260507124434 | 66 | 338 | 0.9 | 7.0 | 0.00 | 0.04 | 0.04 | 86 | 1014.2 |
| 20260507124320 | 66 | 338 | 2.6 | 7.8 | 0.00 | 0.04 | 0.04 | 86 | 1014.2 |
| 20260507124253 | 66 | 338 | 1.7 | 7.8 | 0.00 | 0.04 | 0.04 | 86 | 1014.2 |
| 20260507124133 | 66 | 336 | 0.9 | 7.8 | 0.00 | 0.04 | 0.04 | 86 | 1014.3 |
| 20260507124036 | 66 | 348 | 0.9 | 7.8 | 0.00 | 0.04 | 0.04 | 86 | 1014.3 |
| 20260507123920 | 66 | 348 | 2.6 | 7.8 | 0.00 | 0.04 | 0.04 | 86 | 1014.2 |
| 20260507123832 | 66 | 360 | 1.7 | 7.8 | 0.00 | 0.04 | 0.04 | 86 | 1014.2 |
| 20260507123727 | 66 | 20 | 1.7 | 7.8 | 0.00 | 0.04 | 0.04 | 86 | 1014.1 |
| 20260507123631 | 66 | 355 | 3.5 | 7.8 | 0.00 | 0.04 | 0.04 | 86 | 1014.1 |
| 20260507123538 | 66 | 351 | 3.5 | 7.8 | 0.00 | 0.04 | 0.04 | 86 | 1014.1 |
| 20260507123423 | 66 | 5 | 2.6 | 4.3 | 0.00 | 0.04 | 0.04 | 86 | 1014.1 |
| 20260507123357 | 66 | 351 | 1.7 | 4.3 | 0.00 | 0.04 | 0.04 | 86 | 1014.1 |
| 20260507123223 | 66 | 348 | 0.9 | 4.3 | 0.00 | 0.04 | 0.04 | 86 | 1014.2 |
| 20260507123145 | 66 | 347 | 0.0 | 4.3 | 0.00 | 0.04 | 0.04 | 86 | 1014.2 |
| 20260507123040 | 66 | 347 | 0.0 | 5.2 | 0.00 | 0.04 | 0.04 | 86 | 1014.1 |
| 20260507122924 | 66 | 347 | 0.9 | 5.2 | 0.00 | 0.04 | 0.04 | 86 | 1014.1 |
| 20260507122840 | 66 | 347 | 0.9 | 5.2 | 0.00 | 0.04 | 0.04 | 86 | 1014.1 |
| 20260507122718 | 66 | 347 | 1.7 | 5.2 | 0.00 | 0.04 | 0.04 | 86 | 1014.0 |
| 20260507122642 | 66 | 347 | 2.6 | 7.0 | 0.00 | 0.04 | 0.04 | 86 | 1013.9 |
| 20260507122545 | 66 | 347 | 2.6 | 7.0 | 0.00 | 0.04 | 0.04 | 86 | 1013.9 |
| 20260507122430 | 66 | 347 | 2.6 | 7.0 | 0.00 | 0.04 | 0.04 | 86 | 1014.0 |
| 20260507122320 | 66 | 344 | 1.7 | 7.0 | 0.00 | 0.04 | 0.04 | 86 | 1014.0 |
| 20260507122217 | 66 | 342 | 1.7 | 7.0 | 0.00 | 0.04 | 0.04 | 86 | 1014.0 |
| 20260507122149 | 66 | 342 | 2.6 | 7.0 | 0.00 | 0.04 | 0.04 | 86 | 1013.9 |
| 20260507122032 | 66 | 351 | 2.6 | 7.0 | 0.00 | 0.04 | 0.04 | 86 | 1013.9 |
| 20260507121918 | 66 | 355 | 2.6 | 7.0 | 0.00 | 0.04 | 0.04 | 86 | 1013.9 |
| 20260507121845 | 66 | 355 | 1.7 | 7.0 | 0.00 | 0.04 | 0.04 | 86 | 1013.9 |
| 20260507121717 | 66 | 348 | 1.7 | 5.2 | 0.00 | 0.04 | 0.04 | 86 | 1013.9 |
| 20260507121636 | 66 | 348 | 1.7 | 5.2 | 0.00 | 0.04 | 0.04 | 86 | 1013.8 |
| 20260507121540 | 66 | 348 | 1.7 | 5.2 | 0.00 | 0.04 | 0.04 | 86 | 1013.8 |
| 20260507121444 | 66 | 348 | 2.6 | 5.2 | 0.00 | 0.04 | 0.04 | 86 | 1013.8 |
| 20260507121337 | 67 | 5 | 2.6 | 5.2 | 0.00 | 0.04 | 0.04 | 86 | 1013.8 |
| 20260507121224 | 67 | 15 | 3.5 | 6.1 | 0.00 | 0.04 | 0.04 | 86 | 1013.8 |
| 20260507121138 | 67 | 9 | 2.6 | 5.2 | 0.00 | 0.04 | 0.04 | 86 | 1013.8 |
| 20260507121017 | 67 | 341 | 1.7 | 5.2 | 0.00 | 0.04 | 0.04 | 86 | 1013.7 |
| 20260507120931 | 67 | 340 | 1.7 | 5.2 | 0.00 | 0.04 | 0.04 | 86 | 1013.7 |
| 20260507120857 | 67 | 340 | 2.6 | 5.2 | 0.00 | 0.04 | 0.04 | 86 | 1013.7 |
| 20260507120722 | 67 | 344 | 1.7 | 5.2 | 0.00 | 0.04 | 0.04 | 86 | 1013.7 |
| 20260507120645 | 67 | 344 | 0.9 | 5.2 | 0.00 | 0.04 | 0.04 | 86 | 1013.7 |
| 20260507120520 | 67 | 344 | 0.0 | 5.2 | 0.00 | 0.04 | 0.04 | 86 | 1013.7 |
| 20260507120436 | 67 | 344 | 0.0 | 5.2 | 0.00 | 0.04 | 0.04 | 86 | 1013.7 |
| 20260507120345 | 67 | 344 | 0.9 | 5.2 | 0.00 | 0.04 | 0.04 | 86 | 1013.6 |
| 20260507120220 | 67 | 344 | 1.7 | 5.2 | 0.00 | 0.04 | 0.04 | 86 | 1013.6 |
| 20260507120133 | 67 | 344 | 1.7 | 5.2 | 0.00 | 0.04 | 0.04 | 86 | 1013.5 |
| 20260507120027 | 67 | 331 | 1.7 | 5.2 | 0.00 | 0.04 | 0.04 | 86 | 1013.6 |
| 20260507115916 | 67 | 5 | 1.7 | 5.2 | 0.00 | 0.04 | 0.04 | 86 | 1013.5 |
| 20260507115830 | 67 | 9 | 1.7 | 5.2 | 0.00 | 0.04 | 0.04 | 86 | 1013.5 |
| 20260507115725 | 67 | 5 | 1.7 | 5.2 | 0.00 | 0.04 | 0.04 | 86 | 1013.5 |
| 20260507115659 | 67 | 344 | 1.7 | 5.2 | 0.00 | 0.04 | 0.04 | 86 | 1013.5 |
| 20260507115532 | 67 | 344 | 2.6 | 5.2 | 0.00 | 0.04 | 0.04 | 86 | 1013.4 |
| 20260507115446 | 67 | 351 | 2.6 | 5.2 | 0.00 | 0.04 | 0.04 | 86 | 1013.4 |
| 20260507115329 | 67 | 347 | 1.7 | 5.2 | 0.00 | 0.04 | 0.04 | 86 | 1013.4 |
| 20260507115248 | 67 | 350 | 0.9 | 5.2 | 0.00 | 0.04 | 0.04 | 86 | 1013.4 |
| 20260507115145 | 67 | 350 | 0.9 | 5.2 | 0.00 | 0.04 | 0.04 | 86 | 1013.3 |
| 20260507115019 | 67 | 350 | 0.9 | 5.2 | 0.01 | 0.04 | 0.04 | 86 | 1013.3 |
| 20260507114933 | 67 | 350 | 1.7 | 5.2 | 0.01 | 0.04 | 0.04 | 86 | 1013.3 |
| 20260507114820 | 67 | 355 | 1.7 | 4.3 | 0.01 | 0.04 | 0.04 | 86 | 1013.2 |
| 20260507114719 | 67 | 355 | 1.7 | 4.3 | 0.01 | 0.04 | 0.04 | 86 | 1013.1 |
| 20260507114651 | 67 | 355 | 0.9 | 4.3 | 0.01 | 0.04 | 0.04 | 86 | 1013.1 |
| 20260507114527 | 67 | 350 | 0.0 | 4.3 | 0.01 | 0.04 | 0.04 | 86 | 1013.1 |
| 20260507114433 | 67 | 350 | 0.9 | 4.3 | 0.01 | 0.04 | 0.04 | 86 | 1013.0 |
| 20260507114321 | 67 | 350 | 0.9 | 4.3 | 0.01 | 0.04 | 0.04 | 86 | 1013.0 |
| 20260507114217 | 67 | 350 | 0.9 | 4.3 | 0.01 | 0.04 | 0.04 | 86 | 1012.9 |
| 20260507114132 | 67 | 350 | 0.9 | 4.3 | 0.01 | 0.04 | 0.04 | 86 | 1012.9 |
| 20260507114025 | 68 | 349 | 0.9 | 4.3 | 0.01 | 0.04 | 0.04 | 86 | 1012.9 |
| 20260507113918 | 68 | 349 | 1.7 | 4.3 | 0.01 | 0.04 | 0.04 | 85 | 1013.0 |
| 20260507113825 | 68 | 349 | 1.7 | 4.3 | 0.01 | 0.04 | 0.04 | 85 | 1012.9 |
| 20260507113722 | 68 | 18 | 1.7 | 4.3 | 0.01 | 0.04 | 0.04 | 85 | 1012.9 |
| 20260507113633 | 68 | 31 | 1.7 | 5.2 | 0.01 | 0.04 | 0.04 | 86 | 1012.8 |
| 20260507113601 | 68 | 11 | 0.9 | 5.2 | 0.01 | 0.04 | 0.04 | 86 | 1012.9 |
| 20260507113425 | 68 | 10 | 0.9 | 5.2 | 0.01 | 0.04 | 0.04 | 86 | 1012.9 |
| 20260507113359 | 68 | 10 | 0.9 | 5.2 | 0.01 | 0.04 | 0.04 | 86 | 1012.9 |
| 20260507113242 | 68 | 10 | 0.0 | 5.2 | 0.01 | 0.04 | 0.04 | 86 | 1012.9 |
| 20260507113143 | 68 | 9 | 0.0 | 5.2 | 0.01 | 0.04 | 0.04 | 86 | 1013.0 |
| 20260507113018 | 68 | 10 | 1.7 | 5.2 | 0.01 | 0.04 | 0.04 | 86 | 1012.9 |
| 20260507112943 | 68 | 10 | 2.6 | 5.2 | 0.01 | 0.04 | 0.04 | 86 | 1012.9 |
| 20260507112840 | 68 | 10 | 3.5 | 5.2 | 0.01 | 0.04 | 0.04 | 85 | 1012.9 |
| 20260507112726 | 68 | 15 | 3.5 | 6.1 | 0.01 | 0.04 | 0.04 | 85 | 1012.9 |
| 20260507112647 | 68 | 360 | 3.5 | 5.2 | 0.01 | 0.04 | 0.04 | 85 | 1012.8 |
| 20260507112541 | 68 | 355 | 2.6 | 5.2 | 0.01 | 0.04 | 0.04 | 85 | 1012.8 |
| 20260507112454 | 68 | 10 | 2.6 | 5.2 | 0.01 | 0.04 | 0.04 | 85 | 1012.8 |
| 20260507112319 | 68 | 27 | 2.6 | 5.2 | 0.01 | 0.04 | 0.04 | 85 | 1012.8 |
| 20260507112219 | 68 | 355 | 2.6 | 5.2 | 0.01 | 0.04 | 0.04 | 86 | 1012.8 |
| 20260507112152 | 68 | 355 | 2.6 | 5.2 | 0.01 | 0.04 | 0.04 | 86 | 1012.8 |
| 20260507112028 | 69 | 355 | 2.6 | 5.2 | 0.01 | 0.04 | 0.04 | 86 | 1012.8 |
| 20260507111934 | 69 | 355 | 2.6 | 5.2 | 0.01 | 0.04 | 0.04 | 86 | 1012.7 |
| 20260507111848 | 69 | 338 | 2.6 | 5.2 | 0.01 | 0.04 | 0.04 | 86 | 1012.7 |
| 20260507111724 | 69 | 350 | 2.6 | 5.2 | 0.01 | 0.04 | 0.04 | 86 | 1012.7 |
| 20260507111641 | 69 | 5 | 1.7 | 5.2 | 0.01 | 0.04 | 0.04 | 85 | 1012.6 |
| 20260507111534 | 69 | 9 | 1.7 | 6.1 | 0.01 | 0.04 | 0.04 | 85 | 1012.6 |
| 20260507111439 | 69 | 348 | 1.7 | 3.5 | 0.01 | 0.04 | 0.04 | 85 | 1012.5 |
| 20260507111333 | 69 | 347 | 1.7 | 3.5 | 0.01 | 0.04 | 0.04 | 85 | 1012.6 |
| 20260507111219 | 69 | 348 | 0.0 | 5.2 | 0.01 | 0.04 | 0.04 | 85 | 1012.5 |
| 20260507111136 | 69 | 347 | 0.0 | 5.2 | 0.01 | 0.04 | 0.04 | 85 | 1012.6 |
| 20260507111042 | 69 | 347 | 0.0 | 5.2 | 0.01 | 0.04 | 0.04 | 85 | 1012.6 |
| 20260507110927 | 69 | 347 | 0.0 | 5.2 | 0.01 | 0.04 | 0.04 | 85 | 1012.6 |
| 20260507110901 | 69 | 347 | 0.0 | 5.2 | 0.01 | 0.04 | 0.04 | 85 | 1012.7 |
| 20260507110717 | 69 | 347 | 0.0 | 5.2 | 0.01 | 0.04 | 0.04 | 85 | 1012.7 |
| 20260507110642 | 69 | 347 | 0.0 | 5.2 | 0.01 | 0.04 | 0.04 | 85 | 1012.6 |
| 20260507110518 | 69 | 347 | 0.9 | 5.2 | 0.01 | 0.04 | 0.04 | 85 | 1012.6 |
| 20260507110454 | 69 | 347 | 1.7 | 5.2 | 0.01 | 0.04 | 0.04 | 85 | 1012.6 |
| 20260507110327 | 69 | 345 | 1.7 | 5.2 | 0.01 | 0.04 | 0.04 | 85 | 1012.6 |
| 20260507110223 | 69 | 9 | 1.7 | 5.2 | 0.01 | 0.04 | 0.04 | 85 | 1012.6 |
| 20260507110128 | 69 | 342 | 1.7 | 6.1 | 0.01 | 0.04 | 0.04 | 85 | 1012.6 |
| 20260507110030 | 69 | 350 | 1.7 | 5.2 | 0.01 | 0.04 | 0.04 | 85 | 1012.6 |
| 20260507105917 | 70 | 338 | 1.7 | 8.7 | 0.01 | 0.04 | 0.04 | 85 | 1012.6 |
| 20260507105828 | 70 | 348 | 1.7 | 8.7 | 0.01 | 0.04 | 0.04 | 85 | 1012.5 |
| 20260507105724 | 70 | 348 | 0.9 | 8.7 | 0.01 | 0.04 | 0.04 | 85 | 1012.5 |
| 20260507105636 | 70 | 348 | 0.9 | 8.7 | 0.01 | 0.04 | 0.04 | 85 | 1012.4 |
| 20260507105540 | 70 | 348 | 0.9 | 8.7 | 0.01 | 0.04 | 0.04 | 85 | 1012.4 |
| 20260507105418 | 70 | 345 | 1.7 | 8.7 | 0.01 | 0.04 | 0.04 | 85 | 1012.3 |
| 20260507105329 | 70 | 344 | 1.7 | 8.7 | 0.01 | 0.04 | 0.04 | 85 | 1012.4 |
| 20260507105225 | 70 | 355 | 1.7 | 8.7 | 0.01 | 0.04 | 0.04 | 85 | 1012.4 |
| 20260507105141 | 70 | 355 | 2.6 | 8.7 | 0.00 | 0.03 | 0.03 | 85 | 1012.4 |
| 20260507105016 | 70 | 5 | 1.7 | 7.0 | 0.00 | 0.03 | 0.03 | 85 | 1012.5 |
| 20260507104949 | 71 | 325 | 1.7 | 7.0 | 0.00 | 0.03 | 0.03 | 85 | 1012.5 |
| 20260507104835 | 71 | 325 | 2.6 | 7.0 | 0.00 | 0.03 | 0.03 | 85 | 1012.6 |
| 20260507104721 | 71 | 11 | 0.9 | 4.3 | 0.00 | 0.03 | 0.03 | 85 | 1012.6 |
| 20260507104647 | 71 | 294 | 0.0 | 4.3 | 0.00 | 0.03 | 0.03 | 85 | 1012.6 |
| 20260507104521 | 71 | 290 | 0.0 | 4.3 | 0.00 | 0.03 | 0.03 | 85 | 1012.6 |
| 20260507104426 | 71 | 290 | 0.0 | 4.3 | 0.00 | 0.03 | 0.03 | 85 | 1012.5 |
| 20260507104340 | 71 | 290 | 0.0 | 4.3 | 0.00 | 0.03 | 0.03 | 85 | 1012.5 |
| 20260507104226 | 71 | 355 | 0.0 | 4.3 | 0.00 | 0.03 | 0.03 | 85 | 1012.5 |
| 20260507104210 | 71 | 355 | 0.0 | 4.3 | 0.00 | 0.03 | 0.03 | 85 | 1012.4 |
| 20260507104027 | 71 | 355 | 0.9 | 4.3 | 0.00 | 0.03 | 0.03 | 85 | 1012.3 |
| 20260507103933 | 71 | 355 | 1.7 | 7.0 | 0.00 | 0.03 | 0.03 | 85 | 1012.2 |
| 20260507103820 | 71 | 355 | 1.7 | 7.0 | 0.00 | 0.03 | 0.03 | 85 | 1012.1 |
| 20260507103723 | 71 | 15 | 0.9 | 7.0 | 0.01 | 0.03 | 0.03 | 85 | 1012.1 |
| 20260507103635 | 71 | 349 | 0.9 | 7.0 | 0.01 | 0.03 | 0.03 | 85 | 1012.1 |
| 20260507103435 | 71 | 349 | 0.9 | 7.0 | 0.01 | 0.03 | 0.03 | 85 | 1012.1 |
| 20260507103322 | 71 | 355 | 0.9 | 7.0 | 0.01 | 0.03 | 0.03 | 85 | 1012.0 |
| 20260507103218 | 71 | 355 | 1.7 | 7.0 | 0.01 | 0.03 | 0.03 | 85 | 1012.0 |
| 20260507103131 | 71 | 355 | 1.7 | 7.0 | 0.01 | 0.03 | 0.03 | 85 | 1012.0 |
| 20260507103030 | 71 | 348 | 2.6 | 5.2 | 0.01 | 0.03 | 0.03 | 85 | 1012.0 |
| 20260507102916 | 72 | 355 | 1.7 | 5.2 | 0.01 | 0.03 | 0.03 | 85 | 1011.9 |
| 20260507102822 | 72 | 342 | 0.9 | 3.5 | 0.01 | 0.03 | 0.03 | 85 | 1011.9 |
| 20260507102726 | 72 | 340 | 0.9 | 3.5 | 0.01 | 0.03 | 0.03 | 85 | 1012.0 |
| 20260507102630 | 72 | 340 | 0.9 | 3.5 | 0.01 | 0.03 | 0.03 | 85 | 1011.9 |
| 20260507102532 | 72 | 5 | 0.9 | 3.5 | 0.01 | 0.03 | 0.03 | 85 | 1012.0 |
| 20260507102422 | 72 | 355 | 0.0 | 3.5 | 0.01 | 0.03 | 0.03 | 85 | 1011.9 |
| 20260507102328 | 72 | 360 | 0.0 | 3.5 | 0.01 | 0.03 | 0.03 | 85 | 1011.9 |
| 20260507102225 | 72 | 360 | 0.0 | 4.3 | 0.01 | 0.03 | 0.03 | 85 | 1011.8 |
| 20260507102137 | 72 | 360 | 0.0 | 4.3 | 0.01 | 0.03 | 0.03 | 85 | 1011.8 |
| 20260507102031 | 72 | 360 | 0.0 | 4.3 | 0.01 | 0.03 | 0.03 | 85 | 1011.8 |
| 20260507101922 | 72 | 5 | 0.9 | 4.3 | 0.01 | 0.03 | 0.03 | 85 | 1011.8 |
| 20260507101834 | 72 | 5 | 1.7 | 4.3 | 0.01 | 0.03 | 0.03 | 85 | 1011.8 |
| 20260507101720 | 72 | 5 | 0.9 | 4.3 | 0.01 | 0.03 | 0.03 | 85 | 1011.8 |
| 20260507101636 | 72 | 204 | 0.9 | 4.3 | 0.01 | 0.03 | 0.03 | 85 | 1011.9 |
| 20260507101539 | 72 | 360 | 0.9 | 4.3 | 0.01 | 0.03 | 0.03 | 85 | 1011.9 |
| 20260507101428 | 72 | 360 | 0.9 | 4.3 | 0.01 | 0.03 | 0.03 | 85 | 1011.9 |
| 20260507101334 | 72 | 17 | 0.0 | 2.6 | 0.01 | 0.03 | 0.03 | 85 | 1011.8 |
| 20260507101241 | 72 | 17 | 0.0 | 2.6 | 0.01 | 0.03 | 0.03 | 85 | 1011.7 |
| 20260507101143 | 72 | 17 | 0.9 | 2.6 | 0.01 | 0.03 | 0.03 | 85 | 1011.6 |
| 20260507101019 | 73 | 17 | 0.0 | 1.7 | 0.01 | 0.03 | 0.03 | 85 | 1011.5 |
| 20260507100925 | 73 | 17 | 0.0 | 1.7 | 0.01 | 0.03 | 0.03 | 85 | 1011.3 |
| 20260507100816 | 73 | 17 | 0.9 | 1.7 | 0.01 | 0.03 | 0.03 | 85 | 1011.3 |
| 20260507100718 | 73 | 17 | 0.9 | 1.7 | 0.01 | 0.03 | 0.03 | 85 | 1011.3 |
| 20260507100650 | 73 | 17 | 0.0 | 1.7 | 0.01 | 0.03 | 0.03 | 85 | 1011.3 |
| 20260507100524 | 73 | 17 | 0.0 | 1.7 | 0.01 | 0.03 | 0.03 | 85 | 1011.3 |
| 20260507100457 | 73 | 17 | 0.0 | 1.7 | 0.01 | 0.03 | 0.03 | 85 | 1011.2 |
| 20260507100323 | 73 | 17 | 0.0 | 1.7 | 0.01 | 0.03 | 0.03 | 85 | 1011.2 |
| 20260507100223 | 73 | 17 | 0.0 | 1.7 | 0.01 | 0.03 | 0.03 | 85 | 1011.2 |
| 20260507100134 | 73 | 17 | 0.0 | 1.7 | 0.01 | 0.03 | 0.03 | 85 | 1011.2 |
| 20260507100030 | 73 | 17 | 0.0 | 1.7 | 0.01 | 0.03 | 0.03 | 85 | 1011.2 |
| 20260507095937 | 73 | 17 | 0.0 | 1.7 | 0.01 | 0.03 | 0.03 | 85 | 1011.2 |
| 20260507095829 | 73 | 17 | 0.0 | 1.7 | 0.01 | 0.03 | 0.03 | 85 | 1011.2 |
| 20260507095725 | 73 | 17 | 0.0 | 1.7 | 0.01 | 0.03 | 0.03 | 85 | 1011.2 |
| 20260507095656 | 73 | 17 | 0.0 | 1.7 | 0.01 | 0.03 | 0.03 | 85 | 1011.2 |
| 20260507095537 | 73 | 17 | 0.9 | 1.7 | 0.01 | 0.03 | 0.03 | 85 | 1011.3 |
| 20260507095428 | 73 | 17 | 0.9 | 1.7 | 0.01 | 0.03 | 0.03 | 85 | 1011.3 |
| 20260507095335 | 73 | 17 | 0.9 | 1.7 | 0.01 | 0.03 | 0.03 | 85 | 1011.2 |
| 20260507095220 | 73 | 17 | 0.0 | 1.7 | 0.01 | 0.03 | 0.03 | 85 | 1011.2 |
| 20260507095144 | 73 | 17 | 0.0 | 1.7 | 0.01 | 0.03 | 0.03 | 85 | 1011.2 |
| 20260507095041 | 73 | 17 | 0.0 | 1.7 | 0.01 | 0.03 | 0.03 | 85 | 1011.3 |
| 20260507094928 | 73 | 17 | 0.0 | 2.6 | 0.01 | 0.03 | 0.03 | 85 | 1011.3 |
| 20260507094841 | 73 | 17 | 0.0 | 2.6 | 0.01 | 0.03 | 0.03 | 85 | 1011.2 |
| 20260507094728 | 73 | 17 | 0.0 | 2.6 | 0.01 | 0.03 | 0.03 | 85 | 1011.2 |
| 20260507094713 | 73 | 17 | 0.0 | 2.6 | 0.01 | 0.03 | 0.03 | 85 | 1011.3 |
| 20260507094527 | 73 | 17 | 0.0 | 2.6 | 0.01 | 0.03 | 0.03 | 85 | 1011.2 |
| 20260507094419 | 73 | 17 | 0.0 | 2.6 | 0.01 | 0.03 | 0.03 | 85 | 1011.3 |
| 20260507094326 | 73 | 17 | 0.0 | 2.6 | 0.01 | 0.03 | 0.03 | 85 | 1011.2 |
| 20260507094222 | 73 | 17 | 1.7 | 2.6 | 0.01 | 0.03 | 0.03 | 85 | 1011.1 |
| 20260507094155 | 73 | 17 | 1.7 | 2.6 | 0.01 | 0.03 | 0.03 | 85 | 1011.2 |
| 20260507094037 | 73 | 17 | 0.9 | 2.6 | 0.01 | 0.03 | 0.03 | 85 | 1011.1 |
| 20260507093944 | 74 | 19 | 0.0 | 1.7 | 0.01 | 0.03 | 0.03 | 85 | 1011.1 |
| 20260507093830 | 74 | 19 | 0.0 | 4.3 | 0.00 | 0.02 | 0.02 | 85 | 1011.1 |
| 20260507093720 | 74 | 19 | 0.0 | 4.3 | 0.00 | 0.02 | 0.02 | 85 | 1011.1 |
| 20260507093643 | 74 | 19 | 0.0 | 4.3 | 0.00 | 0.02 | 0.02 | 85 | 1011.1 |
| 20260507093546 | 74 | 19 | 0.0 | 4.3 | 0.00 | 0.02 | 0.02 | 85 | 1011.2 |
| 20260507093430 | 74 | 19 | 0.0 | 4.3 | 0.00 | 0.02 | 0.02 | 85 | 1011.1 |
| 20260507093403 | 74 | 19 | 0.0 | 4.3 | 0.00 | 0.02 | 0.02 | 85 | 1011.1 |
| 20260507093220 | 74 | 19 | 0.9 | 4.3 | 0.00 | 0.02 | 0.02 | 85 | 1011.0 |
| 20260507093127 | 74 | 19 | 0.9 | 4.3 | 0.00 | 0.02 | 0.02 | 85 | 1011.0 |
| 20260507093029 | 74 | 19 | 0.9 | 4.3 | 0.00 | 0.02 | 0.02 | 85 | 1011.0 |
| 20260507092916 | 74 | 349 | 0.0 | 3.5 | 0.00 | 0.02 | 0.02 | 85 | 1011.0 |
| 20260507092821 | 74 | 349 | 1.7 | 3.5 | 0.01 | 0.02 | 0.02 | 85 | 1011.0 |
| 20260507092718 | 74 | 349 | 0.9 | 3.5 | 0.01 | 0.02 | 0.02 | 85 | 1011.0 |
| 20260507092634 | 74 | 317 | 0.0 | 2.6 | 0.01 | 0.02 | 0.02 | 85 | 1011.0 |
| 20260507092528 | 74 | 291 | 0.0 | 2.6 | 0.01 | 0.02 | 0.02 | 85 | 1011.0 |
| 20260507092442 | 74 | 291 | 0.0 | 2.6 | 0.01 | 0.02 | 0.02 | 85 | 1011.0 |
| 20260507092327 | 74 | 291 | 0.0 | 2.6 | 0.01 | 0.02 | 0.02 | 85 | 1011.0 |
| 20260507092224 | 74 | 291 | 0.9 | 2.6 | 0.01 | 0.02 | 0.02 | 85 | 1011.0 |
| 20260507092135 | 74 | 291 | 0.9 | 2.6 | 0.01 | 0.02 | 0.02 | 85 | 1011.0 |
| 20260507092034 | 75 | 291 | 0.0 | 1.7 | 0.02 | 0.02 | 0.02 | 85 | 1011.0 |
| 20260507091925 | 75 | 291 | 0.0 | 2.6 | 0.02 | 0.02 | 0.02 | 85 | 1011.0 |
| 20260507091831 | 75 | 290 | 0.0 | 2.6 | 0.02 | 0.02 | 0.02 | 85 | 1011.0 |
| 20260507091720 | 75 | 290 | 0.0 | 2.6 | 0.02 | 0.02 | 0.02 | 85 | 1010.9 |
| 20260507091641 | 75 | 290 | 0.0 | 4.3 | 0.02 | 0.02 | 0.02 | 85 | 1010.9 |
| 20260507091556 | 75 | 290 | 0.0 | 4.3 | 0.02 | 0.02 | 0.02 | 85 | 1010.9 |
| 20260507091425 | 75 | 290 | 0.0 | 5.2 | 0.02 | 0.02 | 0.02 | 85 | 1010.9 |
| 20260507091339 | 75 | 290 | 0.0 | 5.2 | 0.02 | 0.02 | 0.02 | 85 | 1010.9 |
| 20260507091216 | 75 | 290 | 0.0 | 5.2 | 0.02 | 0.02 | 0.02 | 85 | 1010.9 |
| 20260507091127 | 75 | 290 | 0.9 | 5.2 | 0.02 | 0.02 | 0.02 | 85 | 1010.9 |
| 20260507091023 | 75 | 290 | 0.9 | 5.2 | 0.02 | 0.02 | 0.02 | 85 | 1010.9 |
| 20260507090929 | 75 | 284 | 0.9 | 5.2 | 0.02 | 0.02 | 0.02 | 85 | 1011.0 |
| 20260507090847 | 75 | 347 | 0.9 | 5.2 | 0.02 | 0.02 | 0.02 | 85 | 1011.0 |
| 20260507090811 | 75 | 347 | 0.9 | 5.2 | 0.02 | 0.02 | 0.02 | 85 | 1010.9 |
| 20260507090652 | 75 | 348 | 0.9 | 5.2 | 0.02 | 0.02 | 0.02 | 85 | 1010.9 |
| 20260507090527 | 75 | 348 | 0.9 | 5.2 | 0.02 | 0.02 | 0.02 | 85 | 1011.0 |
| 20260507090433 | 75 | 246 | 0.9 | 4.3 | 0.02 | 0.02 | 0.02 | 85 | 1011.0 |
| 20260507090319 | 75 | 355 | 1.7 | 4.3 | 0.02 | 0.02 | 0.02 | 85 | 1011.0 |
| 20260507090219 | 75 | 355 | 1.7 | 4.3 | 0.02 | 0.02 | 0.02 | 85 | 1011.0 |
| 20260507090131 | 76 | 355 | 0.9 | 2.6 | 0.02 | 0.02 | 0.02 | 85 | 1011.0 |
| 20260507090052 | 76 | 355 | 0.0 | 2.6 | 0.02 | 0.02 | 0.02 | 85 | 1011.0 |
| 20260507085937 | 76 | 5 | 0.0 | 2.6 | 0.02 | 0.02 | 0.02 | 85 | 1011.0 |
| 20260507085823 | 76 | 5 | 0.9 | 2.6 | 0.02 | 0.02 | 0.02 | 85 | 1010.9 |
| 20260507085719 | 76 | 5 | 0.9 | 2.6 | 0.02 | 0.02 | 0.02 | 85 | 1010.9 |
| 20260507085631 | 76 | 5 | 0.9 | 2.6 | 0.02 | 0.02 | 0.02 | 85 | 1010.9 |
| 20260507085538 | 76 | 5 | 0.0 | 4.3 | 0.02 | 0.02 | 0.02 | 85 | 1010.8 |
| 20260507085443 | 76 | 5 | 0.0 | 4.3 | 0.02 | 0.02 | 0.02 | 85 | 1010.8 |
| 20260507085336 | 76 | 5 | 0.0 | 4.3 | 0.02 | 0.02 | 0.02 | 85 | 1010.8 |
| 20260507085223 | 76 | 5 | 0.0 | 4.3 | 0.02 | 0.02 | 0.02 | 85 | 1010.8 |
| 20260507085137 | 76 | 5 | 0.9 | 4.3 | 0.02 | 0.02 | 0.02 | 85 | 1010.8 |
| 20260507085040 | 76 | 5 | 1.7 | 4.3 | 0.02 | 0.02 | 0.02 | 84 | 1010.7 |
| 20260507084930 | 76 | 9 | 1.7 | 4.3 | 0.02 | 0.02 | 0.02 | 84 | 1010.7 |
| 20260507084816 | 76 | 9 | 1.7 | 5.2 | 0.02 | 0.02 | 0.02 | 84 | 1010.8 |
| 20260507084744 | 76 | 9 | 2.6 | 5.2 | 0.02 | 0.02 | 0.02 | 84 | 1010.8 |
| 20260507084627 | 76 | 19 | 1.7 | 5.2 | 0.02 | 0.02 | 0.02 | 84 | 1010.8 |
| 20260507084521 | 76 | 9 | 0.0 | 5.2 | 0.02 | 0.02 | 0.02 | 85 | 1010.8 |
| 20260507084434 | 76 | 5 | 0.0 | 5.2 | 0.02 | 0.02 | 0.02 | 84 | 1010.8 |
| 20260507084325 | 76 | 5 | 0.9 | 5.2 | 0.02 | 0.02 | 0.02 | 84 | 1010.9 |
| 20260507084221 | 77 | 5 | 0.9 | 5.2 | 0.02 | 0.02 | 0.02 | 84 | 1010.9 |
| 20260507084132 | 77 | 5 | 1.7 | 5.2 | 0.02 | 0.02 | 0.02 | 84 | 1010.9 |
| 20260507084028 | 77 | 5 | 1.7 | 5.2 | 0.02 | 0.02 | 0.02 | 84 | 1010.9 |
| 20260507083933 | 77 | 340 | 0.9 | 4.3 | 0.02 | 0.02 | 0.02 | 84 | 1010.8 |
| 20260507083851 | 77 | 337 | 1.7 | 7.0 | 0.02 | 0.02 | 0.02 | 84 | 1010.8 |
| 20260507083746 | 77 | 337 | 1.7 | 7.0 | 0.02 | 0.02 | 0.02 | 84 | 1010.8 |
| 20260507083636 | 77 | 333 | 0.9 | 7.0 | 0.02 | 0.02 | 0.02 | 84 | 1010.8 |
| 20260507083538 | 77 | 333 | 0.9 | 7.0 | 0.02 | 0.02 | 0.02 | 85 | 1010.8 |
| 20260507083425 | 78 | 349 | 0.9 | 7.0 | 0.02 | 0.02 | 0.02 | 85 | 1010.8 |
| 20260507083351 | 78 | 349 | 0.0 | 7.0 | 0.02 | 0.02 | 0.02 | 85 | 1010.8 |
| 20260507083217 | 78 | 349 | 0.0 | 7.0 | 0.02 | 0.02 | 0.02 | 85 | 1010.7 |
| 20260507083144 | 78 | 349 | 0.9 | 7.0 | 0.02 | 0.02 | 0.02 | 85 | 1010.7 |
| 20260507083019 | 78 | 10 | 2.6 | 7.0 | 0.02 | 0.02 | 0.02 | 85 | 1010.7 |
| 20260507082933 | 78 | 17 | 1.7 | 5.2 | 0.01 | 0.01 | 0.01 | 85 | 1010.7 |
| 20260507082840 | 78 | 355 | 1.7 | 5.2 | 0.01 | 0.01 | 0.01 | 85 | 1010.7 |
| 20260507082716 | 78 | 5 | 1.7 | 4.3 | 0.01 | 0.01 | 0.01 | 85 | 1010.7 |
| 20260507082631 | 78 | 355 | 0.0 | 3.5 | 0.01 | 0.01 | 0.01 | 85 | 1010.7 |
| 20260507082525 | 78 | 305 | 0.0 | 2.6 | 0.01 | 0.01 | 0.01 | 85 | 1010.7 |
| 20260507082438 | 78 | 305 | 0.0 | 2.6 | 0.01 | 0.01 | 0.01 | 85 | 1010.7 |
| 20260507082327 | 79 | 305 | 0.9 | 2.6 | 0.01 | 0.01 | 0.01 | 85 | 1010.7 |
| 20260507082223 | 79 | 345 | 0.9 | 2.6 | 0.01 | 0.01 | 0.01 | 85 | 1010.7 |
| 20260507082129 | 79 | 120 | 0.0 | 1.7 | 0.00 | 0.00 | 0.00 | 85 | 1010.7 |
| 20260507082016 | 79 | 119 | 0.0 | 0.9 | 0.00 | 0.00 | 0.00 | 85 | 1010.6 |
| 20260507081921 | 79 | 119 | 0.0 | 0.9 | 0.00 | 0.00 | 0.00 | 85 | 1010.6 |
| 20260507081826 | 79 | 119 | 0.0 | 0.9 | 0.00 | 0.00 | 0.00 | 85 | 1010.6 |
| 20260507081719 | 79 | 119 | 0.0 | 0.9 | 0.00 | 0.00 | 0.00 | 85 | 1010.6 |
| 20260507081634 | 79 | 119 | 0.0 | 0.9 | 0.00 | 0.00 | 0.00 | 85 | 1010.6 |
| 20260507081536 | 79 | 119 | 0.0 | 0.9 | 0.00 | 0.00 | 0.00 | 85 | 1010.5 |
| 20260507081444 | 79 | 119 | 0.0 | 0.9 | 0.00 | 0.00 | 0.00 | 85 | 1010.6 |
| 20260507081337 | 79 | 119 | 0.0 | 2.6 | 0.00 | 0.00 | 0.00 | 85 | 1010.6 |
| 20260507081222 | 79 | 119 | 0.0 | 2.6 | 0.00 | 0.00 | 0.00 | 85 | 1010.5 |
| 20260507081200 | 79 | 119 | 0.0 | 2.6 | 0.00 | 0.00 | 0.00 | 85 | 1010.6 |
| 20260507081040 | 79 | 119 | 0.0 | 2.6 | 0.00 | 0.00 | 0.00 | 85 | 1010.6 |
| 20260507080947 | 79 | 119 | 0.0 | 2.6 | 0.00 | 0.00 | 0.00 | 85 | 1010.6 |
| 20260507080818 | 79 | 119 | 0.0 | 2.6 | 0.00 | 0.00 | 0.00 | 85 | 1010.6 |
| 20260507080740 | 79 | 119 | 0.0 | 2.6 | 0.00 | 0.00 | 0.00 | 85 | 1010.6 |
| 20260507080651 | 79 | 119 | 0.0 | 2.6 | 0.00 | 0.00 | 0.00 | 85 | 1010.6 |
| 20260507080526 | 79 | 119 | 0.0 | 2.6 | 0.00 | 0.00 | 0.00 | 85 | 1010.6 |
| 20260507080433 | 79 | 117 | 0.0 | 1.7 | 0.00 | 0.00 | 0.00 | 85 | 1010.6 |
| 20260507080320 | 79 | 117 | 0.0 | 1.7 | 0.00 | 0.00 | 0.00 | 85 | 1010.6 |
| 20260507080221 | 79 | 117 | 0.0 | 1.7 | 0.00 | 0.00 | 0.00 | 85 | 1010.7 |
| 20260507080133 | 79 | 117 | 0.0 | 1.7 | 0.00 | 0.00 | 0.00 | 85 | 1010.6 |
| 20260507080055 | 79 | 117 | 0.0 | 1.7 | 0.00 | 0.00 | 0.00 | 85 | 1010.6 |
| 20260507075942 | 79 | 117 | 0.0 | 1.7 | 0.00 | 0.00 | 0.00 | 85 | 1010.6 |
| 20260507075828 | 79 | 113 | 0.0 | 0.9 | 0.00 | 0.00 | 0.00 | 85 | 1010.6 |
| 20260507075723 | 79 | 112 | 0.0 | 0.9 | 0.00 | 0.00 | 0.00 | 85 | 1010.6 |
| 20260507075638 | 79 | 112 | 0.0 | 0.9 | 0.00 | 0.00 | 0.00 | 85 | 1010.6 |
| 20260507075540 | 79 | 112 | 0.0 | 0.9 | 0.00 | 0.00 | 0.00 | 85 | 1010.7 |
| 20260507075426 | 79 | 112 | 0.0 | 0.9 | 0.00 | 0.00 | 0.00 | 85 | 1010.7 |
| 20260507075333 | 79 | 112 | 0.0 | 0.9 | 0.00 | 0.00 | 0.00 | 85 | 1010.7 |
| 20260507075238 | 79 | 112 | 0.0 | 0.9 | 0.00 | 0.00 | 0.00 | 85 | 1010.7 |
| 20260507075140 | 79 | 112 | 0.0 | 0.9 | 0.00 | 0.00 | 0.00 | 85 | 1010.7 |
| 20260507075038 | 79 | 112 | 0.0 | 0.9 | 0.00 | 0.00 | 0.00 | 85 | 1010.7 |
| 20260507074930 | 79 | 112 | 0.0 | 0.9 | 0.00 | 0.00 | 0.00 | 85 | 1010.7 |
| 20260507074816 | 79 | 112 | 0.0 | 0.9 | 0.00 | 0.00 | 0.00 | 85 | 1010.7 |
| 20260507074742 | 79 | 112 | 0.0 | 1.7 | 0.00 | 0.00 | 0.00 | 85 | 1010.7 |
| 20260507074645 | 79 | 112 | 0.0 | 2.6 | 0.00 | 0.00 | 0.00 | 85 | 1010.6 |
| 20260507074519 | 79 | 112 | 0.0 | 2.6 | 0.00 | 0.00 | 0.00 | 85 | 1010.6 |
| 20260507074428 | 79 | 112 | 0.0 | 2.6 | 0.00 | 0.00 | 0.00 | 84 | 1010.6 |
| 20260507074341 | 79 | 112 | 0.0 | 2.6 | 0.00 | 0.00 | 0.00 | 84 | 1010.7 |
| 20260507074216 | 79 | 112 | 0.0 | 2.6 | 0.00 | 0.00 | 0.00 | 84 | 1010.6 |
| 20260507074127 | 79 | 112 | 0.0 | 2.6 | 0.00 | 0.00 | 0.00 | 84 | 1010.7 |
| 20260507074023 | 79 | 112 | 0.0 | 2.6 | 0.00 | 0.00 | 0.00 | 84 | 1010.7 |
| 20260507073936 | 79 | 112 | 0.0 | 2.6 | 0.00 | 0.00 | 0.00 | 84 | 1010.7 |
| 20260507073827 | 79 | 112 | 0.0 | 2.6 | 0.00 | 0.00 | 0.00 | 84 | 1010.8 |
| 20260507073722 | 79 | 109 | 0.0 | 0.0 | 0.00 | 0.00 | 0.00 | 84 | 1010.8 |
| 20260507073654 | 79 | 109 | 0.0 | 0.0 | 0.00 | 0.00 | 0.00 | 84 | 1010.8 |
| 20260507073555 | 79 | 109 | 0.0 | 0.9 | 0.00 | 0.00 | 0.00 | 84 | 1010.8 |
| 20260507073418 | 79 | 109 | 0.0 | 0.9 | 0.00 | 0.00 | 0.00 | 84 | 1010.8 |
| 20260507073324 | 79 | 109 | 0.0 | 0.9 | 0.00 | 0.00 | 0.00 | 84 | 1010.8 |
| 20260507073237 | 79 | 109 | 0.0 | 0.9 | 0.00 | 0.00 | 0.00 | 84 | 1010.8 |
| 20260507073132 | 79 | 109 | 0.0 | 0.9 | 0.00 | 0.00 | 0.00 | 84 | 1010.8 |
| 20260507073037 | 79 | 109 | 0.0 | 0.9 | 0.00 | 0.00 | 0.00 | 84 | 1010.8 |
| 20260507072949 | 79 | 109 | 0.0 | 0.9 | 0.00 | 0.00 | 0.00 | 84 | 1010.8 |
| 20260507072835 | 79 | 109 | 0.0 | 0.9 | 0.00 | 0.00 | 0.00 | 84 | 1010.8 |
| 20260507072741 | 79 | 109 | 0.0 | 0.9 | 0.00 | 0.00 | 0.00 | 84 | 1010.8 |
| 20260507072702 | 79 | 109 | 0.0 | 0.9 | 0.00 | 0.00 | 0.00 | 84 | 1010.7 |
| 20260507072545 | 79 | 109 | 0.0 | 0.9 | 0.00 | 0.00 | 0.00 | 84 | 1010.8 |
| 20260507072450 | 79 | 109 | 0.0 | 0.9 | 0.00 | 0.00 | 0.00 | 84 | 1010.8 |
| 20260507072319 | 79 | 109 | 0.0 | 0.9 | 0.00 | 0.00 | 0.00 | 84 | 1010.8 |
| 20260507072216 | 79 | 109 | 0.0 | 0.9 | 0.00 | 0.00 | 0.00 | 84 | 1010.9 |
| 20260507072127 | 79 | 109 | 0.0 | 0.9 | 0.00 | 0.00 | 0.00 | 84 | 1010.9 |
| 20260507072030 | 79 | 109 | 0.0 | 0.9 | 0.00 | 0.00 | 0.00 | 84 | 1010.9 |
| 20260507071935 | 79 | 109 | 0.0 | 0.9 | 0.00 | 0.00 | 0.00 | 84 | 1010.8 |
| 20260507071821 | 79 | 109 | 0.0 | 0.9 | 0.00 | 0.00 | 0.00 | 84 | 1010.8 |
| 20260507071720 | 79 | 109 | 0.0 | 0.9 | 0.00 | 0.00 | 0.00 | 84 | 1010.9 |
| 20260507071632 | 79 | 109 | 0.0 | 0.9 | 0.00 | 0.00 | 0.00 | 84 | 1010.9 |
| 20260507071527 | 79 | 109 | 0.0 | 0.9 | 0.00 | 0.00 | 0.00 | 84 | 1010.9 |
| 20260507071433 | 79 | 109 | 0.0 | 0.9 | 0.00 | 0.00 | 0.00 | 84 | 1010.9 |
| 20260507071347 | 79 | 109 | 0.0 | 0.9 | 0.00 | 0.00 | 0.00 | 84 | 1010.9 |
| 20260507071221 | 79 | 109 | 0.0 | 0.9 | 0.00 | 0.00 | 0.00 | 84 | 1010.9 |
| 20260507071135 | 79 | 109 | 0.0 | 0.9 | 0.00 | 0.00 | 0.00 | 84 | 1010.9 |
| 20260507071027 | 79 | 109 | 0.0 | 0.9 | 0.00 | 0.00 | 0.00 | 84 | 1010.9 |
| 20260507070940 | 79 | 109 | 0.0 | 0.9 | 0.00 | 0.00 | 0.00 | 84 | 1010.9 |
| 20260507070828 | 79 | 109 | 0.0 | 1.7 | 0.00 | 0.00 | 0.00 | 84 | 1010.9 |
| 20260507070724 | 79 | 109 | 0.0 | 1.7 | 0.00 | 0.00 | 0.00 | 84 | 1010.9 |
| 20260507070655 | 79 | 109 | 0.0 | 1.7 | 0.00 | 0.00 | 0.00 | 84 | 1010.9 |
| 20260507070600 | 79 | 109 | 0.0 | 1.7 | 0.00 | 0.00 | 0.00 | 84 | 1010.9 |
| 20260507070425 | 79 | 109 | 0.0 | 1.7 | 0.00 | 0.00 | 0.00 | 84 | 1010.9 |
| 20260507070351 | 79 | 109 | 0.0 | 1.7 | 0.00 | 0.00 | 0.00 | 84 | 1010.9 |
| 20260507070217 | 79 | 109 | 0.0 | 1.7 | 0.00 | 0.00 | 0.00 | 84 | 1011.0 |
| 20260507070200 | 79 | 109 | 0.0 | 1.7 | 0.00 | 0.00 | 0.00 | 84 | 1011.0 |
| 20260507070033 | 79 | 109 | 0.0 | 1.7 | 0.00 | 0.00 | 0.00 | 84 | 1010.9 |
| 20260507065946 | 79 | 109 | 0.0 | 1.7 | 0.00 | 0.00 | 0.00 | 84 | 1010.9 |
| 20260507065816 | 79 | 109 | 0.0 | 0.9 | 0.00 | 0.00 | 0.00 | 84 | 1011.0 |
| 20260507065722 | 79 | 109 | 0.0 | 0.9 | 0.00 | 0.00 | 0.00 | 84 | 1010.9 |
| 20260507065644 | 79 | 109 | 0.0 | 0.9 | 0.00 | 0.00 | 0.00 | 84 | 1011.0 |
| 20260507065519 | 79 | 109 | 0.0 | 0.9 | 0.00 | 0.00 | 0.00 | 83 | 1011.0 |
| 20260507065427 | 79 | 109 | 0.0 | 0.9 | 0.00 | 0.00 | 0.00 | 83 | 1011.0 |
| 20260507065316 | 79 | 109 | 0.0 | 0.9 | 0.00 | 0.00 | 0.00 | 83 | 1011.0 |
| 20260507065229 | 79 | 109 | 0.0 | 3.5 | 0.00 | 0.00 | 0.00 | 83 | 1011.0 |
| 20260507065144 | 79 | 109 | 0.0 | 3.5 | 0.00 | 0.00 | 0.00 | 83 | 1011.0 |
| 20260507065019 | 79 | 109 | 0.0 | 3.5 | 0.00 | 0.00 | 0.00 | 83 | 1011.0 |
| 20260507064932 | 79 | 109 | 0.0 | 3.5 | 0.00 | 0.00 | 0.00 | 83 | 1011.0 |
| 20260507064838 | 79 | 109 | 0.0 | 3.5 | 0.00 | 0.00 | 0.00 | 83 | 1011.0 |
| 20260507064717 | 79 | 109 | 0.0 | 3.5 | 0.00 | 0.00 | 0.00 | 83 | 1011.0 |
| 20260507064629 | 79 | 109 | 0.0 | 3.5 | 0.00 | 0.00 | 0.00 | 83 | 1011.0 |
| 20260507064524 | 79 | 109 | 0.0 | 3.5 | 0.00 | 0.00 | 0.00 | 83 | 1011.0 |
| 20260507064438 | 79 | 109 | 0.9 | 3.5 | 0.00 | 0.00 | 0.00 | 83 | 1011.0 |
| 20260507064322 | 79 | 109 | 0.9 | 3.5 | 0.00 | 0.00 | 0.00 | 83 | 1011.0 |
| 20260507064223 | 79 | 105 | 0.0 | 3.5 | 0.00 | 0.00 | 0.00 | 83 | 1011.0 |
| 20260507064134 | 79 | 16 | 0.0 | 0.9 | 0.00 | 0.00 | 0.00 | 83 | 1011.0 |
| 20260507064030 | 79 | 16 | 0.0 | 0.9 | 0.00 | 0.00 | 0.00 | 83 | 1011.1 |
| 20260507063915 | 79 | 16 | 0.0 | 0.9 | 0.00 | 0.00 | 0.00 | 83 | 1011.1 |
| 20260507063828 | 79 | 13 | 0.0 | 0.9 | 0.00 | 0.00 | 0.00 | 83 | 1011.1 |
| 20260507063715 | 79 | 13 | 0.0 | 0.9 | 0.00 | 0.00 | 0.00 | 83 | 1011.1 |
| 20260507063636 | 79 | 13 | 0.0 | 0.9 | 0.00 | 0.00 | 0.00 | 83 | 1011.1 |
| 20260507063537 | 79 | 11 | 0.0 | 0.9 | 0.00 | 0.00 | 0.00 | 83 | 1011.1 |
| 20260507063424 | 79 | 11 | 0.0 | 0.9 | 0.00 | 0.00 | 0.00 | 83 | 1011.1 |
| 20260507063331 | 79 | 11 | 0.0 | 0.9 | 0.00 | 0.00 | 0.00 | 83 | 1011.1 |
| 20260507063237 | 79 | 11 | 0.0 | 0.9 | 0.00 | 0.00 | 0.00 | 83 | 1011.2 |
| 20260507063159 | 79 | 11 | 0.0 | 0.9 | 0.00 | 0.00 | 0.00 | 83 | 1011.2 |
| 20260507063016 | 79 | 10 | 0.0 | 0.0 | 0.00 | 0.00 | 0.00 | 83 | 1011.1 |
| 20260507062929 | 79 | 10 | 0.0 | 0.0 | 0.00 | 0.00 | 0.00 | 83 | 1011.1 |
| 20260507062816 | 79 | 10 | 0.0 | 0.0 | 0.00 | 0.00 | 0.00 | 83 | 1011.1 |
| 20260507062723 | 79 | 10 | 0.0 | 0.0 | 0.00 | 0.00 | 0.00 | 83 | 1011.2 |
| 20260507062645 | 79 | 10 | 0.0 | 0.0 | 0.00 | 0.00 | 0.00 | 83 | 1011.1 |
| 20260507062524 | 79 | 10 | 0.0 | 0.0 | 0.00 | 0.00 | 0.00 | 83 | 1011.1 |
| 20260507062431 | 79 | 10 | 0.0 | 0.0 | 0.00 | 0.00 | 0.00 | 83 | 1011.1 |
| 20260507062319 | 79 | 10 | 0.0 | 0.0 | 0.00 | 0.00 | 0.00 | 83 | 1011.2 |